GFSGBSN_500_rhum_081.txt.gz
RH
36 35 33 32 31 31 32 29 26 25 27 32 33 31 29 19 14 13 11 12 14 14 12 13 25 63 88 91 70 61 40 22 16 16 17 23 36 49 56 48 40 34 29 32 32 35 35
44 44 42 38 38 36 36 35 38 37 33 31 31 35 28 16 15 14 11 14 15 19 29 47 92 61 79 93 61 35 25 18 14 12 11 17 32 53 61 59 59 56 48 38 31 29 38
44 45 46 45 42 49 46 37 37 40 45 42 33 18 19 18 20 19 15 13 15 35 51 66 100 58 90 81 46 28 20 15 15 15 14 16 40 75 77 74 66 60 56 52 45 38 38
46 44 34 29 36 45 42 40 37 42 41 40 42 29 18 21 22 20 14 13 15 22 29 97 79 95 97 73 36 21 23 26 20 13 20 48 65 72 100 87 76 90 83 78 69 50 40
49 45 33 24 22 26 30 31 37 45 51 46 45 36 28 27 26 22 14 16 17 23 23 31 100 90 97 50 29 31 32 19 15 23 48 61 81 81 98 56 56 50 46 48 50 55 44
55 50 42 26 26 29 28 22 25 29 35 45 57 53 46 38 38 31 16 20 22 48 28 62 75 78 91 40 28 30 32 24 22 49 60 70 71 78 75 91 94 87 97 93 69 44 39
48 56 59 53 44 39 33 27 24 24 28 36 40 51 51 51 47 40 21 20 27 33 87 90 52 94 89 40 30 33 36 31 40 49 61 73 94 100 100 100 96 88 86 78 43 45 36
63 65 53 43 27 19 20 20 23 26 40 55 57 56 52 47 48 34 28 20 30 74 100 76 91 99 50 33 33 37 40 40 48 59 56 73 91 98 96 100 100 70 84 100 100 53 59
60 48 48 36 28 24 20 19 20 19 20 29 47 57 59 50 40 27 33 23 34 91 96 48 97 80 36 31 32 51 56 63 55 59 40 66 69 74 90 100 100 92 100 100 100 78 46
57 40 37 30 21 30 51 53 64 62 49 45 24 32 49 50 36 27 30 25 38 40 72 99 95 56 37 27 34 53 49 71 82 92 61 50 53 60 60 100 87 69 100 100 100 88 99
41 44 26 27 62 83 90 93 93 95 91 73 49 26 26 39 34 28 31 38 42 76 100 99 96 52 33 26 32 46 49 76 83 100 82 42 54 68 98 98 89 61 88 100 100 100 100
41 25 49 90 99 100 92 94 97 95 84 81 55 43 25 27 34 25 35 42 81 56 100 100 63 36 24 28 39 46 79 100 100 96 82 46 50 96 83 89 90 96 100 100 100 99 98
33 89 100 100 100 95 100 96 100 100 100 100 99 42 26 23 30 25 35 94 94 98 100 76 30 20 25 37 59 49 93 99 68 74 58 55 64 67 64 75 90 97 100 100 100 86 82
100 100 100 100 100 87 96 96 88 100 100 100 98 40 24 25 27 25 39 100 85 100 97 30 21 23 33 49 52 47 87 78 59 84 58 70 64 78 77 62 67 66 73 100 82 89 99
100 100 100 100 95 95 97 98 100 100 100 100 97 41 16 26 25 29 69 92 100 100 41 30 22 25 36 56 58 84 97 98 96 100 100 80 55 69 66 54 61 100 92 86 100 99 89
79 80 100 100 100 96 92 100 100 100 100 100 14 13 20 21 26 34 100 100 100 92 27 22 25 34 42 57 60 68 100 100 99 100 100 100 72 63 81 96 85 100 100 99 96 91 92
94 98 100 100 100 96 89 100 100 100 100 100 24 18 19 25 45 96 62 100 99 28 34 22 33 37 48 40 48 74 84 88 100 97 93 92 80 77 90 73 71 77 99 72 72 74 79
90 100 100 100 100 73 87 89 100 100 100 89 20 27 25 98 100 100 100 99 30 27 27 30 40 46 47 49 59 63 71 70 69 71 76 77 81 73 73 60 55 57 49 56 38 41 41
88 100 97 70 69 70 80 69 96 99 94 31 20 69 100 100 100 100 100 57 23 31 26 36 53 52 52 54 53 56 59 64 69 64 62 64 66 67 64 68 67 57 49 34 34 33 36
100 100 99 58 65 83 71 70 74 84 30 35 88 95 100 98 100 100 94 21 29 23 28 38 53 44 50 45 49 51 54 48 53 58 57 50 42 45 46 52 54 49 37 32 38 35 26
100 80 24 47 40 40 17 19 26 53 83 98 100 100 94 98 100 99 23 19 28 21 30 45 48 44 41 33 40 50 46 40 52 52 52 48 44 42 41 42 38 34 35 32 29 35 35
93 5 9 13 20 30 51 67 77 84 100 100 94 94 95 100 100 35 15 21 19 19 30 42 39 33 28 24 31 30 38 35 32 44 43 35 40 44 44 40 34 29 23 20 21 30 32
10 14 33 39 66 62 68 81 95 95 93 99 100 100 87 80 39 13 11 12 11 16 24 34 34 25 21 19 19 27 34 25 23 27 34 34 31 30 28 27 24 26 25 22 20 18 22
44 58 77 87 98 90 96 98 97 100 100 100 100 100 52 14 13 10 8 8 8 11 22 28 26 22 19 17 20 26 23 22 19 15 16 20 23 24 26 31 30 26 25 24 20 21 22
77 59 69 71 79 82 89 87 98 99 100 100 100 86 29 10 9 8 7 6 6 8 11 17 20 20 20 19 18 20 23 21 20 19 17 17 16 17 17 18 17 19 20 21 22 21 21
66 69 68 81 86 86 90 92 95 100 100 100 95 50 11 7 7 6 6 6 6 7 9 11 14 12 15 16 16 14 14 14 14 16 16 17 14 14 14 14 13 16 15 13 12 14 19
54 72 68 80 77 80 79 79 87 90 94 95 78 21 9 6 6 5 4 4 5 6 6 7 8 8 10 10 10 10 10 10 11 10 9 10 8 7 6 6 5 6 7 7 8 10 9
41 46 57 64 79 77 75 78 83 86 95 84 66 17 7 5 5 5 5 4 4 4 5 5 7 6 6 6 6 5 6 6 6 5 5 6 6 5 6 6 6 8 7 7 8 7 7
41 35 40 50 52 57 62 77 76 77 90 92 70 18 6 5 5 5 5 6 6 6 7 6 6 6 6 6 6 6 6 6 6 5 6 7 7 7 8 9 10 10 11 12 13 13 13

GFSGBSN_500_rhum_084.txt.gz
RH
50 48 45 42 43 43 45 43 40 44 44 42 39 41 40 38 35 38 38 30 24 14 13 12 14 18 26 34 77 89 81 66 55 35 23 17 13 11 9 12 21 26 35 36 34 28 27
59 58 55 55 56 57 52 42 34 25 26 39 44 41 47 48 41 33 28 26 19 17 17 14 14 19 21 43 69 84 78 46 24 20 17 13 10 9 9 13 22 36 54 50 50 40 33
70 64 61 58 55 53 56 53 40 27 25 32 42 38 49 56 47 35 29 22 19 20 19 14 15 17 22 57 60 61 82 29 22 20 14 9 8 8 10 19 25 38 50 62 65 53 43
72 65 62 64 64 66 73 78 71 50 45 40 34 34 33 51 53 38 28 22 22 21 21 15 19 25 36 67 48 91 56 22 26 18 12 10 8 12 22 30 50 79 82 70 59 66 60
76 76 82 79 78 75 66 67 68 67 64 62 51 47 36 41 55 49 33 29 26 25 24 16 25 31 39 83 88 96 31 30 28 25 28 28 27 25 56 64 77 74 56 60 62 63 58
78 69 66 57 54 58 58 57 50 47 43 38 39 48 56 45 50 58 51 37 32 31 28 18 29 47 99 97 88 37 28 46 36 38 44 45 60 68 58 65 76 85 79 68 48 54 72
76 68 59 55 54 61 67 62 48 38 33 32 31 36 44 52 54 52 54 52 40 39 30 24 31 96 97 91 45 27 41 51 51 46 40 47 56 72 85 100 100 82 80 100 100 78 60
51 42 58 85 76 53 34 28 27 26 28 27 25 20 20 28 53 63 52 53 42 44 40 55 31 86 87 90 33 35 42 45 61 47 34 42 42 51 64 94 86 90 100 91 96 86 59
52 65 45 36 42 65 83 95 96 93 89 72 65 46 33 22 38 59 58 53 46 43 35 36 41 49 88 91 30 39 42 44 66 30 46 48 43 69 93 100 100 100 100 100 89 100 90
29 40 74 100 100 100 100 100 100 93 98 96 86 79 57 26 38 53 59 54 46 38 40 45 47 85 98 32 32 39 56 60 65 45 45 44 40 53 84 95 97 100 100 100 87 68 76
61 79 93 91 100 100 100 100 96 100 81 84 78 80 68 54 25 48 55 53 44 37 58 42 61 95 47 30 35 47 77 87 95 61 33 36 49 62 94 70 93 100 100 100 73 84 69
95 98 100 100 99 99 96 89 100 84 81 91 91 97 74 61 24 45 49 46 37 42 45 68 96 52 36 28 46 49 68 78 77 64 40 46 65 72 79 68 79 96 91 97 100 100 100
100 100 100 92 97 100 100 99 83 83 96 100 100 100 61 46 24 38 46 38 34 34 81 99 68 38 32 46 49 58 44 50 52 49 45 57 54 71 84 80 99 99 95 92 98 98 98
94 99 100 92 96 96 98 90 97 100 100 100 100 97 56 33 27 31 38 32 53 100 100 84 44 29 43 42 42 65 52 70 85 86 73 84 68 73 83 95 90 100 100 97 98 97 100
100 100 100 98 100 99 85 84 99 100 100 100 91 60 40 29 24 34 29 76 100 100 53 42 28 38 48 65 87 84 96 98 100 67 67 76 67 62 67 81 92 100 100 100 100 93 92
100 100 99 100 98 80 75 94 100 100 100 98 70 21 22 22 30 28 34 100 100 52 36 24 31 38 64 68 85 70 100 98 100 74 60 70 69 87 100 100 100 100 100 100 96 100 100
93 82 64 71 53 60 86 99 100 96 78 14 14 19 25 28 27 31 75 100 100 45 23 31 34 43 52 68 71 73 77 99 97 88 73 74 66 83 94 99 97 91 92 96 82 76 80
51 56 48 44 62 79 99 100 67 40 39 21 23 24 25 25 29 90 100 100 67 36 28 30 33 44 44 64 65 69 82 78 80 91 95 85 74 72 67 74 70 70 43 55 48 44 56
24 20 15 38 75 69 56 35 26 22 22 25 24 39 49 77 100 100 89 36 46 26 31 29 36 44 52 51 55 63 70 75 80 85 85 77 81 84 60 64 54 38 34 25 29 34 31
21 12 12 15 18 19 19 21 26 33 55 64 70 88 99 100 100 95 28 37 32 31 31 34 54 54 47 43 45 46 49 62 67 70 68 66 69 74 70 50 39 29 24 20 17 22 21
69 70 57 53 59 62 69 78 96 97 96 100 100 98 97 100 47 25 31 35 30 36 32 35 40 40 37 38 40 45 52 51 51 52 56 54 56 56 50 41 41 28 27 36 28 20 16
61 72 67 74 78 77 88 93 97 100 98 100 100 100 96 94 23 26 30 24 33 37 38 30 29 27 31 36 40 35 41 47 44 43 45 45 47 46 40 29 22 21 20 22 26 27 32
47 54 64 71 77 87 94 97 96 100 100 99 95 31 16 17 16 18 16 20 23 27 28 26 21 19 24 24 27 30 28 32 35 33 33 34 32 33 31 25 23 20 22 21 16 14 20
42 42 42 53 63 73 85 87 92 93 96 82 52 17 11 10 10 9 10 12 14 18 18 24 18 17 17 18 21 26 24 19 19 20 19 20 20 18 20 24 24 23 21 19 17 15 13
32 34 36 44 44 56 68 76 74 71 65 38 23 11 8 6 6 6 6 8 9 12 20 21 18 15 16 17 22 21 21 19 18 18 18 15 15 13 15 15 14 14 14 15 14 14 16
20 30 32 31 38 47 58 64 64 49 29 12 7 7 6 5 5 5 5 6 6 5 7 9 13 11 12 13 14 12 13 12 12 13 11 10 9 8 8 8 8 7 6 6 5 6 7
6 16 28 31 29 31 42 49 46 42 20 8 6 5 5 4 4 5 5 5 5 5 5 6 6 7 9 10 10 9 9 9 9 8 6 6 6 5 6 6 6 7 8 8 9 8 8
6 6 16 30 29 31 31 33 38 34 18 10 5 5 4 4 4 5 5 5 5 5 6 6 7 6 6 7 7 6 6 7 6 6 6 7 8 8 8 10 9 11 12 12 13 13 13
6 7 7 15 28 29 33 34 32 28 16 8 6 5 5 5 5 5 6 6 7 7 7 8 7 7 7 7 7 7 7 8 8 8 9 9 12 12 13 14 14 14 15 17 18 18 19

GFSGBSN_500_rhum_087.txt.gz
RH
63 67 76 75 70 70 74 74 65 58 58 60 55 47 41 54 53 48 47 44 38 35 30 30 30 21 14 16 16 19 22 23 23 24 53 51 34 25 21 20 19 16 13 11 11 10 8
87 88 79 76 78 78 78 78 84 79 70 62 62 54 40 43 64 65 57 54 45 40 34 29 28 20 18 19 23 26 23 24 39 61 62 42 26 17 12 11 10 12 11 11 11 9 10
89 84 88 95 97 98 95 89 89 100 99 99 94 82 70 64 69 77 74 62 54 45 36 31 28 20 21 20 20 21 29 54 70 59 40 24 14 11 9 8 7 8 8 10 8 11 30
92 100 100 97 93 88 90 98 100 100 100 96 100 100 100 97 87 80 77 69 58 45 36 31 28 22 23 22 21 27 58 87 67 29 22 18 15 17 15 11 9 8 8 11 15 31 41
93 90 80 66 50 40 38 43 56 78 96 99 98 99 100 98 86 82 78 73 59 45 36 29 30 26 26 28 27 62 75 67 31 32 34 23 33 35 40 30 23 28 25 33 40 65 60
74 52 28 26 39 51 65 67 54 42 39 38 52 75 88 87 87 98 82 74 75 65 40 34 32 31 37 32 30 67 76 55 33 38 45 27 38 42 47 74 83 56 56 57 44 59 89
17 19 38 69 70 66 70 78 94 100 84 59 40 29 27 29 58 54 91 99 94 82 57 45 41 37 35 33 25 66 77 40 36 44 32 31 37 38 45 61 70 61 55 54 57 84 83
58 59 85 83 80 78 76 100 100 100 98 92 94 81 36 24 23 27 38 61 75 89 63 56 46 54 46 43 34 78 80 35 40 39 30 35 41 58 66 84 95 96 98 99 82 66 86
99 89 91 99 86 78 95 100 100 100 91 90 78 65 94 58 25 77 37 75 87 81 62 54 53 52 43 38 61 94 41 51 52 38 29 33 38 47 66 89 98 100 100 100 88 87 97
100 100 100 98 68 72 82 91 95 90 90 87 78 66 71 98 41 58 81 49 70 75 62 54 48 44 43 62 90 32 54 66 71 60 31 30 37 43 59 94 98 100 64 60 67 100 96
100 100 100 87 70 84 84 86 100 99 79 83 100 79 73 99 48 28 100 100 85 77 58 56 45 45 53 98 36 40 53 88 78 56 33 29 36 63 77 68 100 98 86 96 97 100 100
100 100 96 74 83 97 98 97 84 75 92 91 99 100 76 100 44 43 81 98 60 57 53 56 45 56 88 32 34 62 54 48 55 64 32 26 45 81 82 85 82 100 100 100 100 100 100
86 60 74 89 84 89 83 82 86 98 100 100 99 100 70 91 28 36 51 50 55 48 49 50 68 98 29 35 61 52 53 40 46 42 36 24 43 57 82 97 90 100 100 99 100 100 82
34 41 44 48 63 76 84 93 100 100 100 100 100 78 68 45 27 39 38 49 70 44 70 95 95 27 40 47 63 56 75 82 48 45 42 45 71 84 93 83 72 84 80 100 100 99 99
42 51 81 89 89 92 100 100 100 100 99 77 53 63 36 27 35 42 62 87 81 69 100 79 25 41 53 59 79 83 89 67 53 66 71 80 96 98 98 100 90 97 100 100 99 100 100
18 21 23 26 37 49 22 30 33 29 23 24 28 27 25 44 100 100 100 100 100 98 47 31 59 70 82 85 77 63 76 77 68 61 57 61 93 98 100 98 97 100 100 100 97 100 100
61 58 33 24 23 22 22 23 23 24 26 28 30 33 39 63 55 98 100 100 74 31 34 51 67 71 76 74 72 68 97 65 61 74 88 95 100 100 100 100 98 99 90 87 93 96 100
56 63 75 78 69 68 60 33 25 26 27 28 30 31 34 36 51 93 100 96 32 33 41 56 55 72 68 77 85 98 85 69 55 63 82 83 74 95 89 80 75 74 62 74 62 69 79
51 50 68 78 91 91 69 69 72 70 58 62 43 33 44 57 89 94 100 47 36 34 42 47 44 63 75 71 74 82 72 70 69 66 66 60 51 56 72 65 42 46 43 42 51 51 51
39 40 48 75 85 94 100 98 97 99 98 95 100 96 90 94 97 98 49 30 32 37 36 38 49 58 64 63 71 67 68 63 62 63 63 59 60 61 53 48 36 39 34 38 36 29 34
30 32 33 46 72 84 100 100 100 82 55 30 52 74 29 30 32 38 31 30 31 31 34 45 45 48 45 50 54 60 57 53 56 53 51 53 53 55 45 44 44 36 30 27 27 20 19
26 28 26 28 30 39 60 70 61 45 29 18 19 20 19 24 29 28 26 24 26 28 40 34 30 32 34 43 47 46 44 44 42 40 36 35 34 35 35 30 24 19 18 23 23 18 16
22 27 24 19 24 20 21 31 29 10 6 8 9 10 12 13 17 22 21 20 20 27 27 24 22 22 24 27 27 30 32 30 28 27 27 26 24 21 17 16 17 16 16 14 13 13 15
12 16 21 18 16 15 9 13 12 6 4 4 4 4 5 7 8 10 14 17 17 19 19 16 15 15 16 18 19 20 26 26 23 21 18 16 16 16 13 13 14 13 14 13 11 10 10
10 10 12 14 17 12 9 6 6 4 3 3 3 3 4 4 5 6 8 11 12 12 12 14 16 15 12 13 17 17 17 17 16 16 14 12 10 11 9 10 8 8 8 8 6 6 6
15 11 13 12 13 16 10 8 5 4 4 3 3 3 3 3 3 4 4 6 7 8 9 8 9 9 10 12 14 14 14 12 12 13 12 10 8 8 7 6 6 6 7 8 8 7 7
21 10 8 17 24 17 20 13 5 4 4 4 4 4 4 4 4 4 4 4 4 5 5 6 6 7 8 9 9 9 10 9 10 9 7 7 7 7 8 8 10 10 11 13 12 12 14
25 15 11 4 15 27 21 20 16 5 4 4 4 5 6 6 7 6 6 6 6 6 6 6 8 7 7 7 7 7 7 8 7 7 8 9 9 10 12 14 12 14 16 16 17 18 18
34 20 12 7 4 25 26 21 20 15 7 5 5 5 6 6 7 9 9 10 9 8 9 9 9 9 9 9 9 9 8 9 9 10 12 13 17 17 17 19 18 20 21 21 21 21 21

GFSGBSN_500_rhum_090.txt.gz
RH
78 79 78 82 88 100 100 100 100 100 100 100 98 92 87 83 74 74 63 65 64 59 51 45 40 43 39 34 27 28 19 16 19 20 21 24 21 25 42 36 36 33 39 52 46 48 41
71 82 94 97 99 100 98 97 96 98 100 100 99 100 98 97 89 83 79 73 75 73 62 58 49 48 43 35 35 28 20 22 22 25 25 26 42 41 32 22 21 19 20 25 27 30 23
76 87 74 75 53 46 39 32 30 38 50 67 92 100 100 100 99 97 93 91 83 84 76 66 57 51 44 37 37 28 21 24 25 27 28 55 40 41 35 18 12 11 11 11 11 12 14
46 56 80 58 64 74 46 37 39 51 49 38 44 38 83 100 100 100 100 98 96 100 91 77 70 53 43 42 35 27 24 26 27 27 36 48 45 32 19 14 12 12 10 8 9 9 8
97 73 43 39 38 48 70 57 45 48 41 38 44 49 42 74 99 100 100 99 100 99 100 100 88 81 45 38 30 29 30 30 28 31 41 49 32 22 18 32 37 36 23 13 19 13 10
99 100 100 98 95 93 82 79 54 52 76 87 52 54 48 46 96 100 98 100 98 100 98 84 58 91 54 40 35 38 36 30 30 37 57 33 25 22 48 62 80 58 48 66 51 50 44
100 100 100 100 100 100 97 64 73 97 100 100 100 97 39 37 47 90 100 100 100 100 100 97 85 55 48 41 39 43 41 36 44 66 36 30 24 46 50 56 62 51 66 87 95 71 68
34 50 99 100 97 76 73 66 73 90 100 99 80 84 100 35 30 33 74 100 100 100 100 94 78 59 50 48 49 45 41 56 73 52 38 29 40 37 42 69 66 69 81 92 95 98 78
51 34 25 53 61 65 62 70 67 75 66 76 82 84 85 95 29 56 31 48 96 99 98 100 96 79 64 52 47 44 56 55 45 47 50 24 31 35 42 68 59 57 50 44 42 78 66
21 65 48 41 54 72 80 77 73 70 63 59 72 83 64 99 33 92 49 100 85 96 87 86 94 67 54 50 50 61 50 44 65 70 52 23 30 38 49 59 72 83 69 62 69 71 85
21 16 47 79 62 59 71 60 59 70 74 94 98 62 58 89 49 100 81 100 100 97 84 77 67 60 56 54 72 62 42 55 55 53 32 24 29 47 51 71 91 95 94 84 97 99 99
41 28 22 17 71 100 98 97 97 98 100 100 100 100 56 97 36 100 100 95 76 85 49 51 52 53 56 78 44 37 46 27 33 43 27 24 41 47 50 69 84 100 90 94 100 99 100
59 54 35 24 14 21 82 87 76 95 100 100 100 94 63 69 30 99 72 89 100 68 65 59 59 74 82 39 50 55 47 26 45 34 24 27 57 68 68 88 98 100 100 100 100 100 100
60 67 67 36 26 26 14 26 40 80 52 54 58 59 61 29 48 93 92 84 100 100 88 84 79 96 28 48 62 61 87 32 36 38 30 37 51 77 92 97 100 97 97 98 100 99 100
60 70 67 67 43 31 31 30 24 19 21 33 46 49 43 33 30 58 62 100 94 100 84 93 82 38 48 65 79 73 51 38 40 64 55 56 72 88 100 99 98 100 98 100 100 99 100
80 75 71 73 78 69 41 36 34 38 44 48 52 51 47 49 52 70 100 99 92 100 84 40 48 50 62 59 56 52 55 56 53 72 91 98 100 97 100 98 93 100 99 99 95 100 98
90 100 96 83 53 77 95 80 47 37 38 51 81 73 92 99 100 100 94 96 100 71 36 62 88 77 65 43 42 56 53 44 48 66 98 100 100 99 100 100 100 100 93 88 97 91 99
78 91 100 100 78 26 41 51 94 85 39 36 55 69 85 94 83 82 82 57 42 64 69 75 86 69 60 59 52 47 49 55 67 76 76 91 93 100 98 98 98 93 81 84 89 94 91
61 73 84 86 86 45 15 15 21 63 89 88 82 59 64 92 66 43 30 41 56 59 70 61 64 64 59 66 58 64 70 62 64 63 55 69 67 51 58 68 70 69 56 51 53 54 65
38 43 66 60 61 40 14 11 14 14 17 21 66 98 87 78 43 22 30 44 45 48 58 61 50 48 51 56 58 56 52 55 58 52 51 55 62 67 67 42 37 37 41 37 32 38 41
32 33 28 39 44 28 10 6 6 8 10 13 16 18 24 20 22 26 31 33 35 39 36 38 33 36 40 42 45 50 46 51 50 51 49 44 41 40 37 34 32 28 24 19 18 17 19
19 22 25 22 18 19 10 3 3 3 4 4 7 11 13 17 19 22 26 26 26 24 22 23 27 34 35 33 39 35 39 39 37 36 32 31 31 27 22 20 17 16 15 15 16 16 17
14 11 13 21 26 10 10 4 3 2 2 3 3 4 7 12 15 19 20 19 18 17 14 15 17 20 25 29 32 30 30 28 26 24 22 20 19 18 16 15 16 17 14 12 12 12 11
21 15 11 8 23 28 11 6 3 2 2 2 2 2 3 6 8 12 15 18 19 16 15 14 12 13 16 14 16 20 22 21 16 16 14 13 12 11 10 10 11 8 9 9 9 8 10
31 20 14 10 7 28 26 11 5 3 3 2 3 3 3 3 3 5 7 8 12 14 14 13 11 9 10 11 12 12 12 14 12 12 10 9 8 7 6 7 7 7 7 7 8 6 7
33 28 16 12 5 20 28 24 12 4 4 4 4 4 4 4 3 3 3 4 5 5 6 6 6 7 7 8 8 9 9 9 9 9 6 6 7 8 9 10 9 10 11 12 12 11 13
33 35 23 14 9 5 23 26 22 11 4 5 5 6 8 8 8 7 6 5 5 5 5 5 6 6 7 8 8 8 8 9 8 7 7 8 9 10 11 13 13 13 15 16 16 17 18
38 34 36 20 11 7 4 18 26 24 15 5 5 6 7 8 9 10 10 10 9 8 8 8 9 8 8 8 8 8 8 10 10 10 11 13 14 17 16 17 16 18 18 18 18 16 15
43 35 38 29 17 8 5 3 12 26 26 17 6 5 6 7 8 9 11 13 15 14 14 12 12 11 10 12 13 12 14 15 18 17 18 17 19 19 19 18 17 17 17 16 15 15 15

GFSGBSN_500_rhum_093.txt.gz
RH
7 4 15 42 68 72 64 53 63 77 78 91 97 99 100 100 100 99 98 95 84 78 72 73 81 57 54 45 39 35 33 32 31 28 24 18 20 21 19 14 20 38 36 35 29 35 38
9 7 32 60 75 73 70 57 39 46 46 38 40 37 71 96 100 100 100 100 99 97 86 78 81 69 65 53 48 44 40 36 33 28 22 21 25 22 19 18 16 22 28 26 27 22 30
14 12 81 100 100 94 84 71 66 52 48 48 38 42 35 38 40 91 100 100 99 98 98 88 92 82 73 62 56 47 44 39 36 29 22 26 28 25 20 18 23 26 26 22 13 16 15
24 11 45 100 100 100 100 100 100 82 80 51 49 42 36 41 39 34 84 100 99 100 100 99 100 100 79 67 60 52 45 41 32 23 24 28 27 23 20 26 34 30 21 10 17 10 10
28 12 28 30 59 96 100 100 87 76 80 78 74 56 45 43 30 34 56 99 100 99 98 100 100 94 87 77 63 55 48 36 27 28 29 29 26 24 26 32 17 20 21 23 37 23 18
30 14 46 56 31 57 62 80 86 73 88 84 100 100 100 62 42 49 79 100 100 96 100 99 100 100 94 98 91 73 44 32 31 33 32 31 31 33 30 19 27 40 47 48 56 82 58
33 19 21 80 42 69 61 62 84 82 74 81 91 100 100 95 50 79 99 100 100 100 100 100 100 97 100 99 93 55 37 36 38 36 34 42 37 32 22 29 42 38 47 58 59 68 44
39 28 12 58 68 67 64 67 81 92 75 72 82 82 99 70 49 98 99 100 100 100 100 100 100 99 96 82 55 47 44 44 41 42 45 40 30 21 37 35 44 43 39 38 37 46 45
46 34 25 14 90 99 80 59 54 52 60 54 65 82 79 85 63 100 100 100 100 100 100 100 100 100 84 62 58 55 48 46 46 46 41 37 24 24 40 49 69 72 68 77 69 62 70
70 38 33 19 50 98 100 99 88 86 87 92 67 64 64 61 46 88 100 100 100 100 100 100 99 93 82 77 60 52 53 54 46 40 41 33 24 30 33 55 64 76 91 87 94 98 88
93 60 34 33 16 57 94 100 100 100 98 100 96 44 68 60 47 80 100 100 100 100 100 100 92 99 72 59 56 60 56 47 35 26 26 30 26 30 27 40 73 90 100 94 100 100 100
97 100 72 34 35 21 28 60 86 100 99 100 100 55 80 84 84 74 100 98 100 94 75 71 78 68 61 55 60 46 43 31 27 25 36 25 27 28 35 37 67 78 76 99 100 99 100
93 100 100 59 44 38 27 21 28 36 62 85 74 53 73 100 80 95 95 93 88 79 57 59 58 56 58 63 39 53 50 24 35 37 25 30 33 26 37 64 75 85 86 98 98 100 96
99 62 84 73 85 36 38 31 17 30 30 33 44 84 98 83 66 96 100 100 72 69 58 55 58 61 50 48 58 62 51 23 34 30 26 30 49 52 53 83 78 96 100 100 100 100 100
100 41 28 41 46 75 43 48 40 17 33 44 69 79 99 98 89 99 92 92 61 99 87 64 77 34 60 59 44 36 26 27 36 33 43 49 59 59 81 98 98 97 100 100 99 100 100
80 99 21 15 30 47 62 50 68 66 29 29 45 47 38 65 78 74 94 65 75 81 68 73 39 60 54 45 48 36 38 54 74 84 70 73 81 84 88 99 99 100 100 95 94 97 100
64 70 52 13 12 17 77 75 54 78 86 93 82 60 53 63 68 74 84 79 79 67 44 42 51 41 53 56 48 38 44 54 86 96 92 89 92 95 99 100 100 100 97 92 100 98 91
47 48 50 16 10 9 14 20 57 70 58 73 100 86 80 87 74 69 43 48 68 69 71 49 42 54 51 46 32 34 53 59 67 94 84 86 87 90 84 78 73 68 68 82 90 98 100
19 30 38 26 8 7 7 11 12 20 38 50 78 36 26 38 43 49 55 59 57 57 55 47 46 64 61 51 26 33 41 43 49 69 78 77 66 58 49 53 55 51 42 47 61 68 84
16 13 20 35 9 5 4 6 7 6 7 14 17 20 27 32 30 34 40 46 42 42 47 53 49 39 34 34 42 41 41 35 42 55 57 56 47 31 27 26 26 28 30 26 35 44 40
25 17 12 23 26 5 4 3 4 5 6 7 12 14 14 17 20 20 26 24 26 25 28 30 29 38 35 32 34 41 44 37 33 36 38 34 30 26 24 23 21 20 18 17 17 17 19
33 18 15 10 28 12 4 4 3 4 4 5 7 9 10 12 13 14 15 14 15 19 22 20 21 20 22 23 31 30 31 32 29 27 27 25 24 22 19 17 14 14 14 13 11 11 15
32 26 14 8 24 23 7 4 3 3 3 3 4 5 6 7 11 12 15 14 14 14 12 16 19 20 22 22 20 19 19 18 18 17 17 16 15 14 13 11 11 9 10 9 8 6 6
33 27 18 9 7 25 17 6 4 4 4 4 3 4 4 4 4 5 7 10 11 12 12 11 13 12 14 16 17 17 15 14 13 12 11 11 10 9 8 8 8 7 8 8 7 8 10
40 31 23 11 6 7 23 14 5 5 5 6 5 5 4 4 4 4 4 4 5 6 6 7 7 8 9 9 9 9 10 11 9 9 8 7 7 7 7 8 8 9 12 12 12 13 16
46 36 27 20 9 5 6 19 17 5 5 6 9 9 8 8 6 7 7 6 5 5 5 6 6 6 7 7 8 9 9 9 9 9 8 8 8 10 10 12 12 13 16 16 16 17 20
49 43 34 25 19 13 6 6 12 20 6 5 7 8 8 9 11 11 10 11 11 11 10 10 10 9 10 9 9 9 9 10 10 9 10 12 14 17 15 16 15 18 19 18 18 19 20
57 45 39 30 26 19 12 8 6 7 24 9 5 6 7 8 8 11 14 15 14 15 16 17 15 16 14 14 16 16 14 15 16 17 17 17 18 19 19 19 18 19 20 19 18 18 18
72 52 43 39 26 26 20 13 9 6 4 24 16 5 6 6 7 7 10 13 15 16 19 20 24 25 26 24 24 25 25 22 21 20 20 18 19 19 19 19 20 20 20 20 18 17 18

GFSGBSN_500_rhum_096.txt.gz
RH
25 29 23 18 34 100 100 100 99 99 100 100 100 97 98 97 100 100 100 100 98 99 97 94 83 68 71 63 55 50 41 34 31 28 25 24 25 26 25 21 20 21 21 20 17 14 11
39 37 26 17 17 45 81 100 100 92 96 100 99 100 91 96 94 99 100 100 100 100 99 100 98 85 74 80 70 56 50 44 38 35 34 32 30 28 23 22 25 24 21 17 14 13 12
53 44 29 15 21 57 45 84 100 100 86 90 100 89 73 70 60 71 93 100 100 100 100 99 100 99 94 96 76 63 54 50 45 43 40 37 33 28 24 27 26 22 17 17 16 16 13
68 39 36 18 17 73 44 64 65 86 99 96 100 80 69 50 48 39 44 85 100 100 100 100 99 98 95 92 80 74 69 59 50 46 43 38 30 24 26 25 22 19 17 13 18 21 17
82 50 52 22 23 84 59 59 54 65 84 77 93 100 88 50 46 43 42 39 85 100 100 100 99 99 97 100 96 81 71 61 53 47 39 29 27 27 25 22 20 17 15 15 16 29 19
100 94 63 32 48 98 71 65 66 74 70 68 89 85 98 90 58 48 41 36 84 93 100 100 99 100 97 100 92 81 72 60 55 43 31 32 30 26 22 22 18 17 18 23 29 39 41
100 100 64 38 28 100 99 62 50 54 54 62 61 92 79 80 68 52 46 95 100 100 99 95 94 100 100 96 91 90 89 85 57 33 38 35 29 24 20 21 23 26 38 42 46 45 56
100 95 70 40 21 97 100 100 69 64 80 66 73 69 73 96 72 55 75 90 100 95 100 100 100 100 100 99 100 99 79 55 44 42 39 31 26 22 19 19 33 35 56 70 82 74 82
68 78 73 41 22 78 100 100 97 66 83 94 85 72 89 68 96 100 99 100 100 100 100 100 100 98 98 93 96 75 54 49 47 43 37 30 26 22 18 21 30 34 46 66 67 83 100
48 46 72 45 19 29 89 100 84 78 76 94 48 72 55 83 100 100 100 100 100 100 100 100 99 96 89 79 68 63 55 53 47 40 36 29 26 16 21 22 33 49 59 62 74 72 86
23 32 61 49 27 25 21 20 72 73 98 63 58 62 78 99 88 100 100 100 100 100 97 100 99 89 82 81 70 62 55 47 41 38 35 32 21 20 25 30 41 39 42 54 92 99 92
11 19 38 54 56 27 26 26 21 31 36 51 53 47 84 98 100 100 100 100 100 100 97 100 90 83 77 61 63 55 45 40 33 23 23 22 21 25 30 30 26 50 66 90 100 96 98
8 9 19 72 63 40 31 31 29 39 39 42 46 49 62 95 87 95 90 98 99 88 82 83 72 64 61 64 51 46 43 26 27 31 30 28 24 26 20 27 56 70 78 81 76 90 96
19 6 10 26 62 72 61 34 36 36 34 38 74 76 95 84 65 69 65 66 61 52 59 63 58 59 60 45 53 52 35 24 23 23 25 26 24 20 27 52 82 84 100 100 98 100 84
56 6 6 8 19 71 72 80 68 44 47 37 58 88 66 41 53 64 65 58 45 48 58 58 61 50 51 41 28 26 24 23 24 32 35 21 24 28 64 83 88 91 98 97 94 99 96
19 26 5 5 6 29 69 73 91 89 57 55 50 49 53 67 88 76 57 50 45 60 64 47 48 43 38 32 29 39 48 51 27 30 44 35 49 80 84 91 97 99 100 98 97 100 100
13 46 6 4 5 7 21 36 31 46 68 68 65 62 76 96 84 88 67 66 72 52 48 50 50 46 26 30 44 52 64 60 48 56 77 83 85 84 100 88 88 98 97 92 99 98 99
15 22 21 4 4 5 6 10 14 15 22 33 52 40 45 48 48 49 42 42 41 40 40 40 36 24 26 31 36 48 54 60 62 78 88 86 84 70 55 53 57 66 79 86 95 96 100
24 12 34 6 4 4 5 6 8 12 15 24 33 30 36 42 40 35 35 32 29 39 35 21 20 21 22 24 26 35 38 38 55 70 61 51 46 42 34 33 30 31 43 51 64 76 90
34 11 27 19 5 4 5 5 6 7 7 11 19 18 22 26 25 28 32 35 32 36 35 33 24 23 25 19 25 34 33 41 54 52 42 38 31 28 26 24 21 19 19 23 34 45 50
29 17 11 32 16 5 4 5 5 6 6 6 10 11 13 13 13 15 18 22 22 21 21 22 21 24 32 28 18 33 38 44 44 45 36 27 25 23 19 17 14 14 13 12 15 17 18
28 23 10 12 31 13 5 4 4 5 5 6 6 8 10 10 10 10 12 14 13 16 16 17 18 19 21 25 23 21 27 28 28 25 24 22 20 17 14 11 10 10 10 11 9 10 12
36 26 16 6 9 27 13 5 5 5 5 4 5 6 6 8 9 8 8 8 9 10 11 12 13 13 14 14 14 14 14 14 15 14 13 11 9 9 8 9 9 7 6 6 6 6 6
47 28 20 16 8 6 21 16 6 5 8 6 6 6 5 5 5 6 6 6 6 8 9 9 10 11 11 10 10 9 9 9 9 8 8 8 8 7 8 8 8 10 11 10 12 12 13
72 46 26 19 13 9 6 13 17 6 6 9 9 8 8 8 6 6 6 5 6 6 7 7 7 7 8 8 9 9 10 10 9 9 8 8 8 9 10 11 11 14 16 15 15 18 20
87 66 44 25 20 16 11 9 7 16 7 7 9 10 11 11 12 12 9 9 9 9 8 8 9 9 9 10 10 10 11 11 11 10 12 11 12 14 14 16 15 18 18 17 17 18 18
97 86 63 46 33 24 20 16 11 6 13 8 7 8 8 10 13 15 15 14 14 13 14 14 14 13 15 14 15 15 14 14 15 16 15 16 16 18 18 18 16 16 16 16 16 16 15
86 91 77 61 47 42 34 25 18 11 6 10 8 6 7 8 9 12 15 17 18 19 19 19 21 21 21 22 21 21 21 19 19 19 18 18 17 18 19 19 19 18 18 17 18 17 18
77 92 80 73 60 46 44 39 23 14 8 4 6 15 6 6 7 8 9 11 14 15 16 17 19 20 19 22 24 27 27 26 24 22 20 19 18 18 18 19 20 20 21 22 18 17 18

GFSGBSN_500_rhum_099.txt.gz
RH
31 88 93 70 70 37 28 41 88 64 51 94 99 100 100 81 86 97 100 100 100 99 98 99 100 100 100 83 73 66 61 51 42 36 33 30 25 22 21 19 18 20 23 20 17 15 12
27 66 59 62 41 28 57 52 63 42 52 72 100 100 100 93 83 95 100 100 100 100 99 98 100 98 100 93 81 69 63 59 50 42 36 32 29 28 25 24 26 27 25 23 21 20 17
34 55 57 50 26 34 92 68 46 45 53 72 98 100 100 95 96 99 100 100 100 99 100 99 99 99 100 100 82 70 67 64 56 50 43 39 37 35 33 32 31 29 25 24 23 20 18
44 38 64 38 23 89 99 91 41 46 61 69 66 83 100 91 96 97 98 100 100 99 100 100 100 99 97 99 95 79 77 76 62 54 50 46 42 40 38 35 31 26 25 23 19 16 14
21 38 54 34 29 100 97 78 51 47 53 78 67 94 100 88 84 83 62 94 100 100 100 100 100 99 98 100 99 100 90 74 66 61 56 51 47 42 37 31 27 24 22 18 15 14 12
15 49 55 34 26 100 100 100 92 64 76 60 62 99 98 97 70 55 46 50 95 99 99 100 100 99 92 99 98 97 90 84 76 67 59 53 46 39 32 28 25 20 18 16 19 21 18
10 51 56 34 21 100 100 99 90 73 78 94 83 86 94 93 66 50 43 53 81 100 100 97 99 100 100 96 100 97 96 84 71 69 62 56 50 38 31 25 22 20 15 16 50 34 24
9 44 61 35 29 62 99 100 98 71 85 100 80 66 79 80 62 44 32 48 100 90 97 100 100 99 100 98 100 99 91 79 74 75 65 50 40 32 27 24 19 15 18 33 36 32 50
7 24 63 48 33 26 24 82 74 77 72 54 73 98 98 81 93 91 98 98 100 100 100 98 100 100 100 93 95 96 92 91 71 51 46 41 35 30 26 19 18 23 24 25 23 31 48
6 12 58 66 46 31 27 40 48 47 60 72 82 77 79 100 100 100 100 100 100 100 100 100 100 100 92 97 100 94 72 59 51 48 46 40 32 26 19 16 20 29 24 24 30 47 64
5 10 47 73 59 35 25 27 34 37 45 58 63 100 100 93 100 100 100 100 100 100 97 89 95 97 97 99 89 79 64 57 51 43 37 33 29 20 15 16 26 26 23 31 59 77 79
5 7 23 56 74 44 31 30 32 52 75 88 100 89 81 100 100 100 94 94 99 97 79 91 99 95 86 81 66 60 55 44 38 32 28 28 26 20 18 25 24 20 32 47 72 82 79
5 6 11 24 64 56 42 34 38 55 58 58 72 70 77 95 96 79 85 79 89 88 90 89 71 63 66 60 53 46 42 33 20 19 20 24 25 22 24 24 27 36 46 69 61 63 90
4 5 6 8 24 47 50 39 38 39 41 32 41 56 55 69 80 87 84 86 74 69 72 61 61 57 54 49 44 46 27 23 23 25 28 25 21 24 22 43 52 54 71 82 66 68 100
5 5 5 6 9 19 36 47 54 54 49 42 31 31 48 62 63 66 60 63 58 61 58 50 47 45 40 43 44 29 27 27 40 38 28 22 21 25 49 62 70 74 87 84 82 92 99
21 4 6 6 6 10 18 26 38 58 75 75 67 50 34 34 40 37 35 32 34 43 43 39 26 24 29 41 62 50 35 29 30 26 21 28 44 57 73 93 94 86 89 98 90 92 93
17 13 5 6 5 6 9 16 22 28 30 37 49 48 30 32 26 31 52 32 35 30 24 24 37 45 50 60 55 41 32 47 58 53 58 65 74 76 69 71 78 79 84 92 97 100 99
9 21 8 5 7 6 6 9 13 13 18 27 35 29 40 38 49 40 30 31 25 22 26 28 31 34 42 48 45 36 50 67 68 69 68 63 54 46 39 37 38 51 54 74 81 91 100
28 8 21 8 6 7 7 6 6 10 12 15 20 20 23 29 29 30 32 27 25 26 25 24 21 25 28 29 36 42 50 57 54 50 43 37 32 25 23 23 22 21 34 41 45 56 87
40 14 8 19 8 5 6 6 7 7 8 9 12 14 20 26 21 21 22 19 18 18 17 17 18 22 24 25 28 36 39 40 35 35 31 29 26 25 22 19 14 16 15 17 22 25 36
46 32 10 8 16 8 5 6 6 7 7 7 7 9 11 15 17 16 16 16 18 17 17 14 15 18 21 19 22 24 30 35 34 35 28 22 21 19 16 11 11 11 10 11 16 16 15
57 40 28 9 7 14 7 5 6 6 6 8 7 6 6 8 9 11 13 12 12 12 13 14 14 15 14 21 24 22 25 29 28 24 18 15 13 9 8 7 8 7 8 8 7 8 13
74 51 35 22 12 8 12 8 6 6 6 6 7 8 7 6 7 7 7 7 7 7 7 8 9 10 10 11 15 17 19 16 13 10 9 7 7 7 6 8 8 7 6 6 6 6 6
84 69 48 30 22 18 10 8 9 7 8 7 7 6 7 7 7 7 7 7 7 7 7 7 7 7 7 7 7 7 7 7 7 8 8 8 9 10 11 11 12 16 12 12 15 14 12
86 83 68 48 35 27 24 14 6 9 7 8 8 9 8 7 7 7 7 8 8 8 8 8 9 9 9 10 9 10 10 11 10 10 10 11 12 13 15 16 14 16 16 16 16 17 18
87 85 80 64 50 44 39 31 19 6 7 7 8 9 12 12 9 8 9 10 11 12 11 11 11 13 13 12 12 12 12 13 13 13 14 15 15 16 18 17 15 15 17 17 17 18 17
87 82 86 73 62 49 46 37 27 15 5 6 6 8 8 11 13 14 13 14 14 14 17 18 18 19 21 18 19 19 19 18 16 18 17 17 17 17 17 17 17 17 15 14 16 17 16
86 81 81 87 70 60 48 43 28 21 9 4 3 7 6 8 9 11 14 14 16 17 17 15 19 19 22 23 25 24 26 25 23 22 21 19 18 17 17 17 18 19 19 21 19 15 16
85 84 75 86 78 70 60 48 42 24 15 6 4 4 6 6 6 6 8 10 12 12 13 13 13 14 14 15 17 18 22 24 25 25 22 22 22 23 22 20 19 20 21 22 23 24 23

GFSGBSN_500_rhum_102.txt.gz
RH
4 8 25 50 39 28 40 42 43 54 56 48 55 56 100 100 99 100 97 100 100 99 100 99 99 98 96 87 69 58 50 46 47 48 44 40 33 28 24 22 21 20 18 16 16 15 13
5 11 48 41 34 56 74 74 62 47 37 52 56 61 89 100 97 99 100 100 100 100 100 100 98 99 96 99 97 68 61 55 54 52 48 45 39 35 31 28 25 23 22 20 19 18 15
6 23 57 44 41 94 100 95 76 54 47 57 60 84 99 100 87 86 69 100 99 100 100 100 100 98 97 98 98 81 74 70 61 56 54 51 44 38 34 30 28 28 28 29 28 27 25
7 41 60 42 64 85 100 100 100 72 42 61 57 45 94 100 88 94 65 100 87 100 100 99 100 100 100 99 94 92 82 74 69 62 60 55 49 44 40 37 36 35 34 34 30 28 27
10 48 49 30 55 74 100 100 100 94 63 78 64 76 64 94 93 98 83 100 98 100 100 99 100 100 100 98 87 95 96 82 72 67 64 59 52 47 45 44 42 39 36 32 28 28 30
13 52 34 20 26 28 100 100 100 100 68 99 73 92 100 94 80 99 94 100 100 100 100 96 100 95 94 97 92 100 92 96 88 77 67 61 56 55 52 48 41 37 36 35 32 26 13
14 48 32 21 25 40 34 66 63 69 90 63 71 90 97 98 100 92 95 100 100 100 100 100 100 100 100 99 95 87 92 96 95 85 72 68 61 58 50 47 45 43 38 32 21 16 10
11 39 31 24 29 56 54 41 65 78 74 69 64 70 78 91 79 72 87 100 100 100 100 100 100 86 89 86 94 96 95 93 86 79 69 64 62 56 51 46 36 34 34 22 17 22 21
7 30 35 26 36 62 79 72 53 62 73 77 66 46 63 69 44 54 89 100 100 99 94 100 100 99 96 94 94 96 91 87 79 73 70 69 60 50 42 37 35 26 15 14 17 21 24
8 18 37 31 39 60 64 85 92 61 78 76 61 48 44 40 42 60 100 100 100 100 100 100 98 91 93 99 98 95 95 85 80 79 70 58 46 43 39 28 18 15 14 18 21 24 34
6 10 27 37 31 42 46 72 85 55 75 85 100 100 99 69 87 94 100 100 100 99 96 95 98 86 87 90 88 85 79 72 60 54 51 46 43 35 27 18 16 13 19 20 24 42 38
5 8 13 26 37 26 34 42 62 64 65 89 85 83 76 65 70 94 98 98 99 99 94 90 88 90 83 85 84 80 72 63 56 51 45 38 32 26 23 18 17 20 19 27 36 48 67
5 7 8 12 26 35 26 28 36 51 84 98 100 75 70 84 86 51 66 76 98 92 78 78 86 85 82 82 68 58 51 43 34 27 22 20 22 25 19 22 23 20 26 41 50 58 77
5 6 6 8 13 24 36 28 22 35 49 63 87 77 58 63 62 63 68 69 68 65 60 62 66 69 64 54 46 40 29 18 18 18 17 16 15 20 23 37 33 31 49 61 50 63 71
15 5 6 7 8 12 17 28 23 20 32 38 51 58 63 69 67 59 58 67 53 54 60 53 49 47 42 41 32 18 25 30 35 35 30 23 24 30 43 46 52 66 75 66 76 73 75
7 10 5 6 6 8 11 15 18 17 22 30 39 44 39 36 47 50 57 40 34 39 33 24 18 18 19 23 28 30 33 29 22 28 42 50 60 62 66 76 82 74 71 78 72 67 72
15 10 9 6 6 5 7 12 16 17 17 19 22 22 23 24 22 33 41 24 24 34 41 40 34 29 34 31 33 42 39 38 50 58 68 69 57 50 43 40 43 50 60 66 68 76 85
35 10 11 9 6 6 6 6 9 13 16 20 24 21 19 18 25 23 22 29 35 36 38 43 46 44 38 36 54 61 50 58 62 53 44 38 31 26 25 24 24 26 32 40 38 50 73
48 26 9 11 11 5 6 6 6 8 12 12 17 16 16 18 23 21 20 20 20 21 24 28 32 40 47 50 51 52 46 42 36 31 27 24 24 24 21 18 17 18 18 20 21 24 26
83 41 25 10 9 13 6 6 6 6 7 10 8 10 14 16 18 16 13 15 16 17 20 26 31 30 31 33 32 26 25 27 28 28 26 23 21 19 16 13 10 10 18 16 15 16 15
99 82 43 26 12 8 12 7 6 6 6 6 7 8 9 11 11 11 11 13 14 15 17 20 19 18 20 21 20 21 23 21 20 22 21 18 14 10 7 8 8 8 6 10 13 13 13
97 97 78 44 29 17 10 9 10 7 6 7 6 6 6 8 10 11 11 11 11 13 14 13 12 12 12 13 13 14 15 15 16 13 11 7 6 6 6 7 7 6 6 6 5 8 10
91 94 95 73 47 36 25 12 8 9 9 7 8 7 7 7 6 6 6 8 9 10 10 10 10 9 10 10 11 12 11 9 7 7 7 8 10 10 9 10 12 11 12 10 8 7 6
68 92 91 87 64 49 43 33 12 7 9 10 9 9 9 8 8 8 8 7 7 7 6 6 7 7 7 7 7 7 8 8 10 10 10 11 12 14 14 14 13 14 15 14 15 14 13
66 81 92 89 85 59 49 44 32 11 5 8 10 11 13 12 11 10 9 9 9 9 9 10 10 9 9 10 10 10 10 12 11 12 12 13 14 15 15 16 15 14 16 15 15 15 16
67 71 78 90 82 72 53 46 39 24 8 4 6 8 10 12 14 15 14 14 13 13 13 13 13 15 16 15 15 14 13 13 13 14 15 16 17 16 16 17 18 18 16 15 16 16 17
71 72 74 79 80 74 66 50 42 28 15 5 3 6 7 8 10 14 15 17 17 18 19 19 19 19 19 19 18 20 20 19 18 20 20 20 19 17 16 16 17 18 19 19 21 19 17
76 73 75 73 80 76 67 63 48 37 24 10 6 4 4 7 6 7 8 10 12 12 14 13 14 11 14 14 13 14 14 14 16 17 18 20 21 20 21 20 20 19 19 20 21 21 22
71 70 75 73 76 75 74 65 61 48 34 20 8 6 6 5 6 7 6 6 6 6 6 6 6 7 7 9 12 12 15 15 16 14 12 11 12 14 16 20 21 26 26 23 21 22 23

GFSGBSN_500_rhum_105.txt.gz
RH
4 15 24 21 42 76 96 79 86 73 48 40 35 32 45 92 100 100 100 67 56 100 93 97 100 99 100 88 64 44 40 40 36 31 30 28 26 25 25 25 22 19 16 14 13 12 12
5 32 17 35 46 71 100 100 100 95 60 48 42 45 51 86 100 100 100 97 71 100 100 77 99 100 100 99 97 53 45 43 39 36 35 33 32 32 32 31 26 24 23 22 21 18 16
7 29 20 46 36 50 98 100 100 97 78 71 51 40 50 100 100 94 98 100 82 100 100 100 96 95 100 100 98 84 62 52 50 47 44 43 44 43 41 38 33 31 28 26 24 23 21
11 26 27 52 29 37 55 100 100 100 100 94 74 39 66 100 100 100 100 94 95 99 98 100 98 100 96 99 88 93 78 66 60 55 54 53 51 50 46 42 38 34 32 31 29 29 29
12 27 32 32 36 41 85 69 69 60 94 98 63 83 58 97 79 87 94 94 85 97 100 100 100 99 92 88 96 82 84 80 67 61 63 60 56 52 47 42 39 38 36 39 39 36 33
14 31 28 27 38 50 73 100 83 57 64 70 89 81 68 78 48 82 82 100 84 98 99 100 100 99 99 100 87 73 91 76 68 73 69 64 57 52 50 45 44 45 46 42 40 36 32
11 34 25 25 38 62 66 97 56 50 57 82 100 77 39 49 90 96 100 100 100 100 100 100 100 100 100 91 68 59 75 80 78 84 84 77 72 59 55 54 52 50 48 46 39 32 24
11 35 24 27 29 48 82 34 28 36 41 43 74 34 40 74 100 100 100 100 100 100 100 100 100 100 97 82 76 73 75 88 92 94 94 88 71 63 58 56 54 48 42 38 30 17 11
8 23 26 30 24 30 74 84 72 38 54 64 70 71 85 100 100 100 100 100 100 100 100 100 100 96 90 87 85 85 86 90 96 88 73 67 62 61 61 57 46 41 37 21 14 12 15
6 13 29 22 21 34 51 95 99 97 82 60 49 62 93 100 96 100 98 100 100 100 99 100 98 88 95 87 85 82 80 88 87 72 65 63 65 60 52 46 42 30 17 12 11 17 20
4 8 15 25 23 22 47 60 72 82 93 87 100 81 100 94 85 90 100 100 100 100 82 91 89 84 81 81 86 84 84 81 71 62 60 56 54 50 45 39 27 19 13 13 18 26 32
5 5 10 16 18 21 26 47 44 55 66 55 58 65 81 86 96 87 88 92 100 87 70 85 83 81 88 85 75 67 64 64 60 59 55 50 47 41 33 28 20 14 15 19 27 30 39
5 5 6 10 14 16 22 31 38 46 52 49 44 47 53 65 65 76 90 90 86 73 80 80 84 76 72 70 70 68 65 57 51 45 41 38 35 31 27 18 18 17 20 35 39 39 45
16 5 5 6 9 11 14 27 28 33 35 46 52 51 52 53 59 67 66 66 65 59 63 65 66 66 67 63 57 48 32 18 15 14 14 13 12 14 20 24 31 28 40 45 38 40 56
11 16 6 5 6 8 11 14 18 24 28 26 26 25 42 50 53 52 53 51 53 60 66 64 64 59 48 33 17 16 16 19 21 24 23 21 24 36 46 57 49 55 45 44 56 60 66
33 12 16 6 6 6 7 10 15 20 20 20 21 20 19 22 42 41 47 34 31 33 32 32 34 26 18 18 20 21 22 24 48 61 63 63 66 65 61 55 49 49 49 48 48 47 57
81 34 11 16 6 6 6 7 9 12 12 15 18 16 16 18 21 34 29 21 19 18 20 21 22 21 22 26 28 36 54 68 68 55 46 38 32 28 24 22 20 22 26 36 33 36 41
100 85 28 11 15 6 6 6 6 8 11 14 16 16 20 24 30 31 29 27 26 25 26 24 25 32 40 43 49 58 53 42 36 31 28 24 22 21 19 18 17 17 17 18 20 19 18
93 99 88 30 13 12 7 7 6 6 7 10 12 12 15 17 19 19 20 22 25 27 30 32 36 41 43 47 45 37 32 29 24 24 23 20 19 18 16 12 10 10 14 15 16 15 14
68 93 97 86 38 17 10 9 7 6 6 6 7 7 10 12 15 16 17 20 25 29 33 35 36 37 33 28 26 22 21 21 22 21 19 18 15 10 8 7 7 6 6 10 11 12 12
60 81 88 92 81 46 21 8 10 8 8 7 6 6 6 7 10 12 13 16 20 24 22 21 21 21 20 18 17 16 15 13 15 14 11 9 8 8 7 7 8 7 7 5 6 7 8
40 70 79 86 84 72 50 22 8 11 9 8 8 7 5 5 6 7 8 10 12 14 14 14 13 13 13 13 12 12 10 9 8 8 7 8 8 9 10 9 10 10 11 11 9 8 6
24 46 73 80 81 72 66 50 23 6 8 10 10 9 10 10 8 6 6 6 6 8 9 9 8 8 8 8 8 7 7 7 8 9 10 11 13 13 11 14 13 13 13 13 13 12 12
32 47 64 77 77 74 65 59 50 24 5 7 10 11 11 11 11 11 11 10 8 8 8 8 8 8 9 9 9 10 11 12 12 12 12 13 14 15 15 15 15 15 14 15 15 13 13
71 64 67 72 75 72 70 60 49 38 15 4 6 9 11 13 14 14 14 14 14 14 13 13 13 14 15 15 15 15 15 16 16 16 17 17 18 17 16 16 17 17 18 16 15 16 16
75 71 69 75 72 70 65 67 54 42 27 12 5 4 7 8 10 15 16 18 19 18 19 20 18 19 18 18 20 18 16 14 16 15 15 18 20 22 24 23 20 19 18 19 19 20 20
69 63 64 72 72 71 67 62 66 51 35 20 8 6 5 6 7 8 9 11 14 13 15 15 13 13 10 10 9 9 11 15 16 18 17 16 14 13 13 14 16 18 21 22 20 20 20
64 62 55 67 68 72 67 64 62 63 51 35 16 8 7 6 5 6 6 7 7 7 8 8 8 9 9 12 15 15 10 9 8 9 9 8 8 8 10 17 18 17 14 16 20 24 24
57 53 52 54 58 67 66 68 62 62 61 51 38 17 9 8 7 6 6 7 7 8 9 10 10 10 8 7 8 6 7 7 9 8 7 6 6 6 6 8 15 24 36 26 14 12 13

GFSGBSN_500_rhum_108.txt.gz
RH
11 16 25 50 45 32 76 100 100 100 88 65 44 36 35 36 96 100 100 65 42 26 45 100 100 91 89 92 70 42 29 30 22 13 8 8 11 14 13 12 12 12 13 14 13 11 10
16 22 30 58 28 22 95 100 100 100 100 84 54 40 54 43 78 100 96 81 45 27 33 84 96 100 100 99 95 73 39 31 31 28 24 22 23 24 24 24 22 22 22 20 17 14 13
19 17 28 65 33 20 61 99 100 100 100 83 72 55 56 52 91 100 76 74 52 26 36 100 100 100 100 100 88 78 53 37 33 33 34 33 31 29 28 26 25 24 25 26 25 20 16
19 17 22 75 31 25 30 40 36 53 86 95 68 50 72 70 100 98 88 73 77 26 68 92 100 100 98 97 100 86 68 47 39 38 37 38 35 33 33 31 32 33 34 34 31 27 23
19 16 19 69 70 36 40 51 77 72 72 76 97 71 95 95 90 60 68 85 85 61 91 99 100 100 100 100 99 99 83 60 48 42 41 43 42 40 41 41 41 42 39 36 32 29 28
16 16 19 56 86 68 56 48 40 63 70 60 69 82 54 52 83 98 88 98 96 100 100 98 100 100 100 99 94 88 67 60 53 50 48 50 49 48 48 49 45 43 39 37 36 35 36
10 14 22 50 66 79 99 55 61 52 37 46 55 31 32 65 98 100 100 100 100 100 99 100 100 100 99 97 99 90 64 58 63 66 70 73 65 57 55 52 46 43 42 45 42 30 22
8 15 20 43 59 77 80 91 72 69 89 98 99 98 82 100 98 97 100 100 98 85 99 96 97 100 100 95 85 73 82 60 52 58 61 63 69 69 66 68 57 52 47 39 29 21 15
6 12 16 34 49 54 54 79 88 94 100 92 95 92 83 86 90 100 100 100 99 99 72 87 81 100 88 72 58 52 48 51 66 73 79 87 90 89 80 64 53 42 36 29 21 14 12
7 8 14 26 36 56 50 50 67 90 93 86 58 87 100 89 98 97 100 100 92 96 87 100 98 94 69 62 55 57 68 74 72 74 80 78 74 63 55 48 42 36 30 19 12 9 11
6 6 11 17 25 34 51 53 60 76 79 76 58 74 83 88 77 92 91 79 87 96 73 86 82 73 73 62 75 78 75 71 78 74 68 59 53 48 46 41 37 31 19 14 11 15 18
8 6 6 12 18 18 26 42 50 56 66 80 77 72 82 84 78 80 79 72 76 74 67 84 86 79 85 85 80 81 81 76 71 60 50 47 44 41 39 37 29 22 15 13 18 24 31
11 7 6 7 12 16 18 20 24 45 51 61 80 86 92 98 100 90 87 86 88 66 89 90 94 87 82 77 74 64 58 50 45 42 41 41 41 39 35 28 19 12 18 28 41 46 40
28 11 7 6 6 10 13 17 17 17 23 41 51 55 75 88 87 85 82 82 72 66 66 74 72 68 62 56 50 44 38 34 31 30 27 25 22 17 15 13 18 35 40 48 50 45 40
73 29 11 7 6 6 10 12 14 14 16 22 31 39 42 44 44 50 58 62 57 58 58 53 50 45 38 29 18 13 13 14 15 13 13 13 12 14 35 53 51 57 57 55 54 43 41
95 73 31 11 8 6 6 9 12 15 16 15 16 18 20 22 24 30 44 29 29 33 33 33 30 20 16 18 21 27 29 39 36 41 51 61 63 61 58 46 44 39 36 35 33 28 33
84 98 75 34 9 8 7 6 8 10 13 17 20 17 15 14 14 19 15 12 13 14 16 15 15 18 20 26 38 51 54 52 42 34 29 27 25 24 22 20 18 16 16 17 19 19 19
66 87 97 75 39 9 9 7 6 7 8 11 13 12 14 16 24 19 15 15 14 14 16 17 20 28 39 46 44 35 30 27 26 24 23 22 21 19 16 13 11 11 11 12 12 13 15
38 70 87 96 77 36 9 9 8 6 6 7 9 11 12 12 16 18 20 18 21 22 26 29 31 32 29 24 22 20 20 19 20 20 20 16 15 12 7 7 6 5 6 7 8 8 9
20 27 63 87 93 80 36 8 10 9 7 6 6 6 9 11 13 14 17 19 22 22 24 24 24 20 18 16 16 16 17 18 20 18 13 9 8 8 8 8 8 7 6 5 5 6 6
66 47 50 71 85 91 74 42 8 10 11 10 7 6 6 6 8 10 11 12 13 13 15 17 18 19 16 14 14 14 13 13 11 9 8 9 10 10 9 10 11 11 11 11 10 9 8
71 76 70 69 76 82 85 66 45 8 8 11 11 9 7 6 5 6 7 7 8 9 10 9 10 10 10 10 9 9 8 8 10 11 12 12 13 12 12 12 13 13 13 13 12 12 11
79 81 75 71 74 76 77 79 55 36 9 7 11 13 12 12 10 9 9 8 7 7 7 6 6 7 7 8 9 11 12 13 13 14 15 16 16 16 16 15 15 15 14 15 14 14 14
72 87 72 66 74 76 71 71 68 46 30 9 5 8 11 14 15 14 14 14 13 12 12 12 13 13 14 15 17 18 18 18 18 19 19 18 18 19 21 21 19 18 17 17 18 17 15
68 80 72 63 68 73 74 68 63 57 40 26 12 5 6 8 11 15 17 18 19 19 19 20 19 19 19 16 16 16 13 12 12 12 13 13 13 13 13 12 13 16 18 20 19 18 18
61 83 68 80 56 68 70 69 66 61 50 35 20 13 6 5 6 8 10 13 14 16 14 14 14 12 11 9 9 10 12 18 16 14 15 11 10 10 10 8 12 18 18 15 15 17 22
55 69 62 72 54 51 57 70 66 61 62 50 35 21 13 8 6 6 6 6 7 7 7 7 8 8 8 11 13 12 11 9 8 9 9 8 8 7 7 6 8 7 9 14 20 20 16
58 52 55 55 52 49 51 56 67 64 57 58 55 38 23 15 9 7 6 6 6 7 7 8 8 9 7 7 7 7 7 8 9 11 12 10 10 9 8 7 7 6 5 4 5 12 28
54 52 50 46 50 46 47 48 57 64 67 54 55 57 48 33 20 13 11 7 7 7 8 6 7 8 9 10 8 8 10 10 11 13 13 13 14 14 12 8 9 8 7 6 5 4 6

GFSGBSN_500_rhum_111.txt.gz
RH
26 49 30 50 44 28 89 100 100 100 100 98 54 40 30 26 25 90 100 78 39 68 76 100 96 97 99 88 80 48 32 24 15 7 7 7 8 7 7 7 7 6 6 6 7 8 9
36 50 34 39 54 42 25 43 68 95 100 100 72 60 35 32 27 67 100 93 40 65 57 85 98 100 99 98 83 58 40 30 22 11 7 7 7 7 6 7 7 8 9 11 14 15 15
38 48 40 46 62 66 44 34 38 58 84 96 88 54 46 36 36 76 100 75 51 61 47 30 32 99 98 100 100 97 63 38 33 21 12 8 8 8 8 9 12 18 19 20 18 16 16
34 47 42 70 82 76 57 42 44 54 43 49 55 51 42 44 68 90 88 64 49 51 60 32 90 100 99 99 96 76 65 48 35 34 26 20 15 13 15 21 25 26 24 22 24 24 26
23 46 53 57 90 96 88 67 61 50 65 82 73 88 100 100 100 79 60 55 61 48 75 39 100 100 100 83 87 91 73 66 49 35 35 31 30 31 32 32 30 30 29 32 27 29 29
13 39 56 58 67 100 100 100 92 70 35 27 53 82 72 43 56 64 50 67 58 100 96 100 100 100 100 97 97 85 75 74 53 40 39 39 37 35 35 34 34 35 37 36 34 32 32
10 22 42 56 62 72 98 100 97 100 74 26 45 64 98 97 49 44 74 94 88 100 96 100 99 100 100 100 100 100 89 82 62 48 46 44 42 41 42 42 44 42 40 42 40 36 36
7 11 26 32 56 62 75 71 81 98 92 100 93 96 96 97 95 99 77 84 100 96 96 100 100 99 100 100 100 97 85 70 60 53 48 47 48 52 55 53 58 63 52 47 46 44 38
6 9 14 20 25 55 66 73 74 78 76 92 94 94 100 98 78 78 100 89 100 100 97 100 100 100 100 99 93 89 78 70 60 57 56 54 55 55 58 65 65 62 66 60 46 33 22
7 7 10 15 19 26 54 68 77 67 69 82 80 76 100 100 100 94 96 86 100 100 99 96 93 96 98 86 62 65 71 65 56 58 58 62 68 72 78 78 75 66 52 40 28 22 13
9 7 8 12 16 19 20 55 67 86 78 78 84 99 86 85 61 63 73 100 84 75 76 83 82 86 80 67 74 65 66 60 64 61 64 73 72 72 68 58 50 43 36 29 20 11 8
11 8 6 9 13 17 22 22 53 66 80 83 67 72 75 88 86 69 74 72 60 64 64 72 71 60 54 59 67 68 67 63 64 69 68 64 56 47 42 40 40 34 26 18 10 9 12
45 10 8 6 8 14 17 20 28 49 64 69 79 82 73 66 75 92 86 82 69 54 70 62 57 64 58 62 66 63 61 65 65 61 48 40 37 38 35 33 29 22 14 11 13 20 23
89 41 10 8 6 8 16 18 17 22 34 42 43 59 68 81 93 86 60 80 62 46 60 62 60 61 69 71 70 60 55 45 42 34 33 32 31 28 27 23 16 13 18 24 33 38 31
79 92 35 11 8 6 8 13 18 20 16 16 22 32 39 46 51 58 68 77 61 65 69 70 73 70 56 42 34 29 24 22 19 19 18 16 17 14 12 18 22 42 46 48 46 42 37
20 73 90 31 11 8 6 8 11 12 16 18 14 14 16 22 25 30 54 26 25 32 34 32 29 20 13 13 15 16 16 17 20 21 19 19 22 41 54 51 49 43 36 33 29 27 21
57 48 76 93 34 10 9 6 7 9 10 11 16 12 11 10 10 12 18 13 12 11 12 14 18 25 33 37 37 35 31 28 26 25 25 22 20 19 18 17 17 15 15 14 14 13 13
69 68 67 78 96 34 10 10 7 6 8 8 8 9 9 9 12 13 11 12 14 16 20 24 30 33 28 21 20 20 20 20 20 19 18 17 15 14 10 8 8 7 7 7 7 7 7
71 74 69 73 83 92 34 10 11 8 6 6 8 7 8 10 10 10 10 10 14 17 20 20 18 16 16 17 17 16 15 18 16 14 12 9 7 7 8 8 8 7 6 6 6 6 6
66 79 73 70 74 82 87 32 8 11 10 8 6 6 8 8 8 8 8 9 10 12 12 12 13 12 12 13 12 12 11 10 10 8 8 10 11 12 11 11 11 11 11 11 10 9 7
62 71 79 69 70 75 80 77 28 7 12 12 10 8 6 6 6 7 8 8 10 11 11 10 10 9 9 9 9 8 9 9 10 11 11 12 12 12 13 14 14 14 14 14 14 14 12
64 68 78 71 64 71 72 79 74 31 6 8 13 14 13 10 9 8 8 7 7 7 7 7 7 7 8 9 10 11 12 12 13 14 16 17 18 16 16 16 16 16 15 15 15 15 14
45 66 77 73 64 70 69 69 77 67 36 7 6 8 13 16 15 14 14 13 13 12 13 13 13 13 16 18 18 18 18 17 16 14 13 13 13 13 15 18 20 20 18 18 18 17 18
44 61 67 77 78 65 68 66 64 68 61 38 10 5 6 8 12 16 17 18 19 20 20 21 20 20 18 17 14 13 12 11 11 14 12 9 9 8 9 12 11 12 14 17 18 20 20
51 62 60 80 92 59 57 63 63 57 59 56 42 18 8 5 6 7 10 14 14 15 15 14 15 14 12 10 10 10 12 12 13 14 10 8 7 8 8 6 7 11 9 11 14 15 14
43 61 60 63 78 64 69 55 57 62 54 51 54 44 22 11 8 6 6 6 6 8 8 8 7 7 8 8 10 10 10 8 8 9 11 11 11 11 11 8 8 7 6 6 6 7 14
43 65 62 58 51 49 54 57 83 65 63 54 52 55 48 31 16 9 8 7 6 6 7 7 8 8 8 8 7 7 8 8 9 9 12 13 14 15 16 13 10 9 8 8 7 6 5
40 65 62 54 48 43 42 48 46 48 55 66 59 52 54 45 42 29 16 12 9 7 7 7 7 8 9 11 12 10 10 10 13 13 18 19 19 16 17 17 15 15 12 10 10 9 8
53 61 62 54 55 49 43 41 36 39 47 56 68 60 54 54 51 47 46 38 32 22 10 9 8 8 9 11 13 14 16 17 19 20 21 21 23 24 22 19 18 18 18 15 12 11 11

GFSGBSN_500_rhum_114.txt.gz
RH
26 36 57 73 87 72 30 36 78 98 99 62 50 82 39 42 31 27 38 39 46 86 67 60 100 88 99 45 55 40 42 25 18 13 7 6 6 6 6 6 6 7 7 8 8 7 7
29 40 58 77 84 96 45 48 47 61 62 100 79 44 39 34 26 23 82 74 43 74 46 100 100 98 100 81 67 61 45 30 22 14 8 6 6 7 7 7 8 8 8 7 6 6 7
25 30 53 75 68 95 83 41 46 48 54 68 96 78 52 31 28 24 41 92 38 77 47 100 100 93 100 89 70 58 52 38 26 16 8 7 8 7 8 8 8 7 7 6 7 10 14
21 24 42 70 66 88 100 54 36 56 50 39 48 52 52 46 32 27 43 76 48 82 55 90 83 100 87 78 67 73 68 48 29 21 12 7 7 7 7 7 7 6 7 8 14 18 19
13 19 25 60 64 67 88 100 56 40 55 67 91 100 75 33 30 83 84 65 45 70 64 93 98 96 100 100 99 85 75 52 34 26 19 10 7 7 7 7 7 8 11 18 21 21 23
11 14 18 42 78 57 75 100 100 52 63 65 62 82 100 94 82 60 60 88 55 67 74 89 98 99 100 100 100 100 91 60 42 32 26 21 15 12 12 12 16 22 27 24 21 22 28
11 11 16 23 65 74 75 84 66 96 98 100 100 52 35 40 37 34 56 57 74 70 57 49 66 98 86 98 97 95 85 77 62 40 34 32 30 26 27 29 31 30 28 26 28 27 34
10 13 12 18 47 79 75 57 73 90 79 96 93 90 41 42 37 46 72 100 88 60 72 55 87 74 78 79 86 83 74 63 59 49 38 36 34 35 36 36 35 35 38 37 39 45 54
8 11 13 14 33 60 85 75 98 100 100 79 72 94 74 70 100 92 100 100 91 98 97 100 69 87 99 100 93 88 83 82 72 63 54 45 42 40 41 40 39 41 46 53 58 55 53
8 8 11 14 18 38 63 87 75 80 96 53 46 63 53 96 100 97 100 94 100 100 98 98 99 100 100 95 83 84 73 65 60 58 53 51 53 52 52 50 52 54 57 62 64 56 40
11 8 8 11 16 16 31 48 85 90 75 86 51 39 48 60 66 94 99 93 99 100 86 100 100 85 80 85 76 75 64 56 52 55 50 48 47 48 54 59 66 72 66 52 38 26 21
23 10 7 8 11 16 14 23 36 58 85 76 84 71 54 42 44 42 46 48 78 66 64 77 79 59 55 60 67 64 66 61 57 52 50 51 54 55 57 58 54 44 34 28 24 19 13
74 21 10 7 7 11 16 12 18 30 45 64 80 79 96 91 80 68 58 54 42 30 32 30 35 38 40 44 43 47 47 45 47 49 53 52 52 48 42 35 30 27 26 21 15 11 10
75 75 16 9 6 7 10 15 12 12 22 29 32 58 67 66 73 66 54 58 57 47 36 44 57 53 49 57 65 62 60 59 55 48 43 34 31 27 28 25 24 22 16 11 11 17 22
77 79 69 14 9 6 7 9 14 14 10 12 20 24 28 40 48 58 56 51 50 47 52 57 58 66 64 45 38 27 27 24 24 21 19 18 18 17 15 12 10 15 13 26 35 33 27
83 76 80 65 14 10 6 6 8 11 12 10 9 14 16 19 27 32 42 32 37 37 37 27 23 18 13 11 13 14 15 13 10 10 10 9 10 12 16 23 33 33 35 30 27 24 21
71 82 76 77 67 13 11 7 6 7 9 10 11 8 9 9 10 12 12 11 12 13 14 17 20 22 20 18 18 16 16 18 20 20 19 18 18 18 15 14 13 12 11 10 10 10 9
66 69 77 74 76 71 11 11 9 6 6 7 9 7 8 9 11 14 14 15 17 18 20 17 14 13 12 12 11 11 12 12 12 11 10 9 8 8 6 6 6 6 6 6 7 7 7
52 71 78 75 74 75 73 13 11 11 8 6 6 6 6 7 10 10 9 9 11 11 11 11 11 12 12 12 11 10 9 9 8 7 7 8 8 9 9 9 9 8 9 8 7 6 7
10 43 74 79 73 75 76 72 14 10 12 11 9 7 7 7 7 8 9 9 9 10 9 8 8 8 9 9 8 9 9 10 10 11 11 12 13 13 13 14 14 14 14 14 13 12 10
6 27 62 75 78 75 72 74 74 17 7 12 13 13 11 9 8 7 7 7 7 7 8 8 8 8 9 9 11 11 12 14 15 16 16 17 17 17 17 18 18 17 16 16 15 15 15
5 10 54 63 75 78 70 70 74 72 23 6 7 13 14 16 14 14 13 12 12 12 12 14 14 16 18 18 19 20 18 15 14 12 13 14 13 13 15 15 14 16 18 20 20 18 18
5 5 15 59 66 84 64 62 66 72 69 34 10 5 7 12 15 16 18 19 20 19 19 21 20 19 16 14 12 10 10 10 10 10 10 9 8 8 10 9 7 9 9 10 11 14 14
6 5 7 52 63 81 66 62 59 66 69 67 48 23 8 5 7 9 11 12 14 15 14 14 14 12 10 9 9 9 10 11 9 10 11 10 11 11 11 8 8 8 7 6 6 7 7
6 6 7 45 62 65 63 83 70 61 66 65 64 53 35 16 8 6 6 6 6 7 8 8 8 7 7 8 8 9 10 10 9 9 10 14 13 15 15 14 10 9 9 8 8 7 7
7 6 6 22 61 58 51 53 60 84 62 66 66 61 59 47 31 13 8 7 7 6 6 7 7 7 8 8 8 7 7 8 9 11 12 17 18 19 20 18 16 15 15 12 10 10 9
7 7 11 26 50 61 53 44 42 42 43 48 62 67 61 57 58 53 32 17 12 10 8 8 8 7 8 9 12 13 14 16 16 18 18 19 20 21 24 23 21 18 19 17 16 15 11
8 8 19 46 50 56 57 48 45 40 38 38 46 63 72 65 71 66 62 54 45 36 35 22 14 11 10 9 9 11 13 16 15 17 17 16 18 18 22 25 26 28 27 22 20 20 18
9 9 22 44 48 57 56 56 50 48 43 42 37 44 69 77 90 72 83 82 67 61 59 51 56 60 57 45 28 22 14 12 11 12 13 13 13 19 20 24 29 35 33 30 29 26 24

GFSGBSN_500_rhum_117.txt.gz
RH
17 28 62 48 79 89 49 39 67 97 95 84 75 100 97 100 99 100 96 74 61 77 61 100 78 100 90 57 30 24 39 44 24 15 11 9 7 6 5 6 6 5 5 5 6 6 6
16 32 65 45 59 85 88 31 46 54 70 92 71 100 91 99 81 56 64 63 47 99 66 72 98 96 100 49 30 31 29 46 34 19 14 10 7 6 5 5 5 5 6 6 6 6 7
14 35 64 58 77 85 98 38 37 63 46 60 93 54 43 42 39 25 28 40 42 97 85 63 70 99 97 79 43 34 38 40 38 20 14 10 6 6 6 6 6 6 6 7 7 8 7
13 32 54 67 84 99 92 65 64 64 68 39 43 71 50 34 26 24 64 55 49 100 79 62 100 100 100 77 31 27 25 41 39 27 16 9 7 6 6 6 7 7 7 7 7 6 6
9 23 39 72 74 95 76 89 86 95 63 89 90 93 55 43 31 26 48 64 46 99 93 98 100 100 75 75 78 63 48 48 41 28 18 10 7 7 7 7 7 7 7 7 6 7 9
10 12 28 49 85 87 75 51 67 82 47 56 80 72 37 50 35 45 60 88 68 95 86 97 100 97 99 77 82 70 53 56 42 29 21 13 8 8 8 8 7 7 6 6 7 10 18
9 10 16 28 64 88 70 40 56 44 31 31 39 40 44 63 50 47 64 72 100 96 82 100 100 100 89 69 50 58 60 63 53 37 26 18 11 8 7 7 7 7 8 10 16 19 21
7 11 10 19 35 74 84 49 39 66 80 59 30 36 80 100 97 100 94 60 91 94 91 97 90 94 97 79 84 86 73 59 58 46 35 25 19 15 12 11 12 16 20 23 22 22 24
7 8 13 11 22 44 82 85 42 55 53 42 48 80 100 57 49 46 64 66 64 56 70 99 91 59 71 86 99 92 83 74 59 50 37 31 28 25 24 23 24 25 24 25 26 31 34
10 7 9 13 11 22 42 78 75 44 64 87 83 81 73 89 97 94 100 100 70 72 57 61 54 64 79 74 71 70 68 64 61 59 51 43 37 34 30 29 32 33 33 37 40 43 45
16 9 6 9 14 11 21 39 66 68 36 39 48 89 82 97 100 100 100 100 78 60 40 89 70 36 69 81 71 73 67 60 66 61 60 52 48 45 42 40 42 44 42 42 48 51 44
40 15 9 6 9 12 10 18 31 61 72 65 54 37 33 36 52 54 82 89 86 58 66 84 82 74 67 70 64 56 58 59 56 52 51 49 46 45 43 40 42 48 51 48 37 25 17
78 39 13 8 6 9 10 10 17 29 40 59 68 56 40 42 50 33 32 32 28 31 42 47 55 59 55 51 50 56 56 53 47 47 42 41 46 51 48 46 43 35 28 21 17 16 13
73 73 33 12 8 6 9 9 9 15 24 26 40 53 43 40 46 38 25 20 24 30 36 44 50 51 45 57 56 53 48 44 42 45 46 43 41 37 28 23 19 18 17 16 14 12 11
82 74 70 22 12 8 6 8 8 8 8 12 15 17 20 32 39 35 32 37 28 33 36 40 44 29 24 25 25 30 37 40 37 32 24 20 15 13 12 12 11 11 11 11 14 20 19
68 80 75 73 25 12 10 6 7 8 9 9 9 9 8 8 12 19 28 18 14 12 12 13 13 15 18 18 14 10 10 9 9 9 8 8 8 8 9 13 16 23 24 24 23 17 15
22 68 78 77 75 27 11 12 7 6 8 8 10 9 8 10 12 12 12 10 12 12 13 15 11 12 12 11 13 16 17 16 16 15 16 16 17 15 12 10 10 10 9 8 8 9 8
8 35 64 78 78 74 37 9 13 9 7 7 7 8 7 10 12 16 14 12 12 12 12 12 12 12 12 11 10 10 9 9 8 8 6 6 6 5 5 5 6 6 6 6 6 7 6
5 6 41 64 77 75 74 46 7 12 12 9 7 7 7 7 8 10 11 10 10 10 10 10 10 10 10 10 10 9 9 10 11 11 12 12 12 13 13 12 13 12 12 13 13 12 12
6 5 8 40 67 80 72 73 53 8 9 13 13 10 9 8 7 8 8 8 8 9 8 8 9 9 10 12 13 14 16 16 16 17 17 17 16 17 17 18 18 18 18 18 18 17 15
5 6 5 13 60 69 72 68 72 57 14 6 11 14 15 14 13 11 10 11 12 12 15 16 18 19 20 19 18 18 16 14 13 12 13 13 13 13 14 11 10 8 9 9 8 10 11
5 5 5 7 45 64 76 63 62 68 63 25 6 6 11 15 17 17 16 18 18 19 20 18 18 16 14 13 11 10 10 10 10 10 10 11 9 10 10 10 8 8 7 6 6 7 6
5 5 4 9 27 52 72 70 71 64 66 64 47 13 6 6 8 11 13 12 12 12 11 11 11 10 9 8 8 9 9 8 9 10 12 11 12 13 14 11 9 9 8 8 9 7 7
6 5 5 10 8 33 65 54 92 78 70 64 62 57 27 11 6 6 6 7 7 7 7 7 7 7 7 7 7 8 9 9 9 11 11 16 18 18 18 17 15 13 16 13 10 10 9
7 6 6 5 16 11 60 58 48 60 77 50 64 64 60 47 24 11 8 7 6 6 6 6 7 7 9 9 10 9 7 10 10 12 15 17 19 21 21 23 23 19 19 21 17 17 16
7 7 6 6 7 14 36 58 51 45 41 39 45 59 66 63 61 49 37 18 14 11 8 7 8 8 8 10 13 15 16 16 14 15 16 18 18 19 20 23 26 26 27 28 23 19 21
8 8 7 6 6 7 12 43 56 50 46 40 36 38 56 68 66 68 63 59 52 44 37 37 26 17 17 13 10 10 11 12 12 13 14 15 15 15 16 22 26 28 33 38 32 29 29
9 9 8 7 6 7 9 32 51 54 53 51 46 38 36 44 71 88 80 78 78 68 65 65 55 63 70 69 63 50 37 27 21 14 15 16 25 32 40 36 34 39 50 45 46 46 43
10 10 9 8 9 9 10 29 48 56 53 54 51 47 40 36 36 51 70 72 78 93 83 78 85 87 81 78 76 83 88 83 73 73 71 70 74 65 58 59 45 56 55 58 60 62 64

GFSGBSN_500_rhum_120.txt.gz
RH
22 58 53 34 47 78 50 51 46 75 85 74 68 82 100 99 99 96 98 87 72 47 93 84 69 63 38 21 16 30 61 53 29 16 11 9 8 10 12 12 12 14 15 16 10 5 6
20 58 51 33 42 83 73 59 63 44 77 86 90 91 95 94 96 56 94 98 92 44 88 100 100 99 57 34 17 21 32 56 45 22 15 11 8 7 8 7 7 8 9 8 6 5 6
16 52 54 33 42 48 69 55 66 66 38 78 93 91 100 95 95 67 81 88 82 40 99 100 91 70 42 22 12 11 16 44 52 34 17 12 9 8 7 6 6 6 6 6 5 5 6
11 38 61 35 37 37 33 34 38 82 88 49 69 62 91 36 41 40 63 73 72 56 100 90 100 98 93 41 26 19 18 22 41 42 25 15 12 10 9 7 6 5 5 5 6 6 6
8 21 60 36 33 45 41 28 26 40 96 65 46 59 35 34 23 33 39 65 85 63 74 100 99 92 98 56 35 26 22 24 30 42 35 20 15 10 7 6 6 6 6 6 6 7 7
8 11 45 44 38 47 40 83 60 39 57 54 44 53 40 33 26 46 54 61 76 77 36 92 80 92 60 43 39 35 34 31 39 42 38 26 18 10 7 6 6 6 6 6 7 7 6
7 8 19 54 44 50 65 54 91 90 63 42 29 23 35 40 71 100 70 59 81 80 43 80 98 64 70 63 47 34 21 19 32 39 36 29 18 11 8 7 7 7 7 7 7 7 7
6 8 9 25 53 40 48 72 81 87 72 50 58 81 80 50 100 100 97 60 78 90 100 100 70 83 69 60 51 38 30 31 31 39 35 26 18 13 8 8 8 7 7 7 7 8 11
9 7 7 12 31 44 26 37 71 100 98 74 62 77 52 48 56 73 88 96 91 100 100 100 82 74 71 59 55 55 51 48 38 42 36 29 22 14 10 9 10 10 9 10 14 18 20
12 7 6 7 14 32 48 28 27 43 80 100 99 99 97 87 80 55 84 89 99 100 77 92 88 86 73 52 47 50 37 36 41 42 42 37 28 23 18 18 21 20 21 23 22 28 34
10 12 7 6 7 14 25 46 34 34 33 44 80 95 100 100 87 82 92 86 88 89 60 73 68 64 64 83 59 67 66 57 51 48 48 40 40 32 31 31 32 31 32 35 36 36 33
28 11 11 7 6 7 12 19 38 34 24 32 49 54 54 75 70 79 93 89 65 53 55 79 89 63 63 78 78 66 59 63 61 53 51 46 40 40 41 40 40 39 38 36 34 38 40
74 29 11 11 6 7 7 10 15 32 27 22 26 27 32 25 29 37 43 40 37 33 57 72 72 81 72 60 58 56 46 51 51 53 47 45 41 36 34 34 36 37 42 42 35 23 16
74 73 41 11 12 7 6 8 9 11 20 29 18 22 22 24 20 20 30 37 30 35 37 46 46 52 58 59 59 55 53 50 48 46 40 38 30 33 39 38 35 25 16 12 11 10 9
53 73 72 53 12 12 8 6 8 8 9 10 15 20 21 25 28 28 29 34 29 35 38 38 45 47 40 39 37 38 41 40 42 41 40 39 34 27 20 12 9 8 11 11 14 18 15
8 34 70 70 56 13 13 10 7 7 8 7 7 7 7 8 9 13 17 11 12 14 16 17 16 13 11 15 24 21 20 18 17 13 13 9 10 8 8 12 13 14 12 12 12 10 10
7 7 42 70 70 50 10 12 12 8 7 8 8 8 7 8 8 10 11 8 9 9 11 13 13 14 19 21 17 16 13 11 10 10 10 11 10 10 10 8 7 6 6 6 7 7 6
5 6 13 45 71 68 52 8 11 13 11 8 8 8 7 7 8 10 9 9 9 9 10 11 9 8 8 8 8 9 8 7 6 6 6 7 8 8 9 9 9 10 10 10 11 11 10
5 6 6 26 58 71 65 57 9 9 12 13 11 9 9 9 8 8 9 9 8 9 9 9 10 10 11 12 12 12 13 14 15 16 17 18 18 17 17 16 16 17 17 18 18 17 16
5 6 5 12 42 57 73 64 64 25 7 11 12 14 12 13 13 12 11 12 13 14 15 16 17 17 17 18 17 16 15 13 13 12 12 12 11 10 9 8 8 9 10 9 7 7 9
4 5 6 6 14 39 65 66 72 63 42 8 7 11 10 13 13 14 15 16 16 16 15 15 14 13 13 12 10 10 10 10 10 10 11 11 10 9 10 9 8 8 8 8 8 7 6
4 4 4 5 12 9 53 56 85 83 62 58 22 6 7 10 11 10 10 10 11 9 10 10 9 8 8 8 8 8 9 9 11 12 13 12 13 13 15 14 12 10 12 11 10 10 10
5 4 4 5 5 17 15 56 73 55 82 60 59 41 13 6 6 7 9 8 9 9 8 7 8 7 7 8 8 8 8 8 9 10 12 17 18 18 17 18 17 15 16 19 18 15 17
6 6 5 5 5 12 24 20 53 48 84 48 58 64 55 36 12 7 6 6 6 6 7 7 6 7 7 7 7 8 8 9 10 12 15 16 18 20 21 23 23 23 23 22 27 22 18
8 8 7 6 6 5 12 31 28 52 57 43 42 52 65 60 52 38 17 9 8 7 7 7 7 8 10 10 12 13 11 14 15 16 16 16 18 20 19 21 21 24 27 27 33 34 25
9 9 9 8 7 6 5 12 53 17 53 43 43 41 50 64 62 65 61 49 34 25 20 14 10 9 8 9 10 10 12 14 14 14 14 14 15 16 20 26 22 26 28 30 37 36 32
9 8 8 7 7 7 6 6 7 7 41 55 49 47 43 49 60 68 87 67 67 67 60 52 60 51 42 62 60 46 28 16 16 16 14 14 24 23 39 28 38 32 39 41 46 46 54
9 9 9 9 9 9 9 8 8 9 19 45 58 56 49 40 50 60 73 78 72 64 79 76 65 66 83 80 80 82 91 89 84 85 80 76 80 79 69 68 73 64 63 64 64 64 62
12 11 11 11 11 11 12 11 12 12 12 10 37 57 59 53 42 48 62 55 62 53 63 82 77 78 74 65 64 67 62 56 61 70 82 90 93 67 48 61 65 50 71 63 60 69 73

GFSGBSN_500_rhum_123.txt.gz
RH
16 24 43 52 37 38 49 69 39 57 55 70 88 100 100 100 99 100 80 80 58 36 80 74 79 90 72 33 44 70 28 15 10 8 6 6 9 19 29 24 23 25 28 26 20 19 24
16 21 39 51 79 36 36 75 72 62 77 70 71 90 93 94 94 100 97 95 57 34 100 89 65 70 66 27 22 70 64 26 16 12 9 6 6 9 13 16 20 20 21 20 18 17 16
17 18 31 49 70 63 54 82 92 55 80 92 89 58 60 88 67 60 63 80 54 94 100 100 100 96 64 28 18 39 74 60 29 17 14 11 9 8 8 10 12 14 11 12 11 11 9
19 18 28 43 70 70 29 46 71 62 60 81 70 40 56 60 47 60 58 62 64 76 100 100 100 100 74 41 18 32 60 68 53 32 21 16 12 10 9 8 8 10 8 7 7 7 6
12 18 22 30 56 87 60 19 41 44 33 55 50 29 25 38 50 49 73 74 93 54 100 99 97 100 61 29 19 24 47 68 62 51 42 27 17 12 10 8 8 8 7 6 6 6 6
7 21 19 23 31 76 90 66 18 24 27 27 31 23 23 32 34 57 84 99 96 100 100 100 98 82 48 24 15 27 32 42 52 51 44 35 23 16 12 10 9 8 7 6 5 6 6
6 8 26 23 24 49 91 94 72 48 30 20 35 28 30 30 32 70 98 94 92 100 100 100 94 73 50 23 13 13 19 28 39 48 43 37 30 26 19 14 10 8 6 6 6 6 6
6 7 11 25 19 39 56 84 88 47 43 74 100 81 86 61 54 64 96 99 89 91 100 100 100 81 64 44 30 24 24 27 34 39 40 33 33 28 22 17 11 8 7 6 6 6 7
11 7 8 15 20 24 43 54 88 92 72 58 60 66 93 70 72 84 84 76 90 95 78 72 62 63 48 40 40 32 26 30 29 31 37 34 28 27 22 16 12 9 8 7 8 8 8
13 10 7 8 16 23 31 42 46 78 80 92 90 79 71 81 98 100 82 79 65 41 26 27 58 75 68 50 36 26 19 17 22 28 31 34 27 25 20 18 15 12 11 13 19 27 26
44 13 9 7 9 14 21 27 35 44 56 65 87 81 66 79 88 99 93 88 68 64 58 79 79 63 58 49 38 20 16 13 22 30 32 27 30 27 25 24 21 20 23 29 30 31 32
75 47 13 8 7 9 14 18 20 28 26 39 54 64 97 98 100 100 84 78 85 81 75 88 89 81 59 62 50 44 41 40 35 30 28 29 25 27 30 30 31 32 34 35 34 35 32
71 75 50 12 8 7 8 11 16 17 22 25 25 35 39 45 66 84 83 79 75 62 75 86 100 75 72 71 64 66 58 45 42 35 22 20 30 30 32 34 35 36 37 31 23 22 23
38 73 72 47 12 9 7 7 9 9 16 19 21 29 29 35 33 46 57 62 52 67 71 86 81 79 78 80 62 69 62 53 55 53 48 42 37 33 39 33 25 22 22 19 11 8 8
10 42 70 70 46 11 11 7 8 7 8 8 9 13 18 21 32 39 38 32 28 33 42 45 53 56 56 61 62 63 60 60 54 48 44 46 38 28 20 19 17 10 8 9 10 12 10
7 12 46 71 68 48 11 12 8 8 8 8 8 9 9 10 13 14 16 14 15 16 22 29 32 29 32 31 34 30 28 27 25 25 24 22 21 18 12 8 7 8 8 8 8 7 7
6 8 18 38 72 67 52 12 13 11 9 10 9 8 8 9 9 9 11 8 9 12 16 16 12 14 21 23 19 20 20 20 15 10 8 7 7 7 6 6 6 6 6 7 9 9 9
5 5 8 20 55 74 67 67 19 12 13 11 10 10 10 9 9 9 9 10 9 7 7 8 10 12 12 11 10 10 9 9 8 8 7 7 6 7 9 11 13 15 16 16 16 15 16
4 5 5 8 13 61 62 73 67 24 9 14 13 12 13 12 11 12 12 11 11 11 11 11 11 11 10 10 10 11 12 13 14 16 17 16 17 17 15 12 10 10 9 7 7 7 10
4 4 5 6 8 21 59 74 75 65 44 9 10 13 14 15 16 16 16 17 17 18 18 18 17 17 16 14 14 13 12 12 12 12 11 10 9 9 9 8 8 8 8 8 9 8 7
5 5 4 5 6 11 18 60 70 74 65 59 18 7 10 13 13 15 14 14 15 15 14 14 14 13 12 11 10 10 10 10 11 11 11 10 11 13 13 11 10 11 13 13 12 11 12
6 5 5 5 5 6 14 25 51 56 74 60 61 34 6 6 8 8 10 11 10 10 10 10 10 10 9 9 9 9 10 11 12 14 14 14 14 15 16 18 17 17 16 17 20 19 17
7 6 6 6 5 6 6 13 29 43 73 51 55 65 53 21 7 6 6 6 7 8 8 8 7 7 8 8 8 8 9 9 10 12 14 17 20 20 19 22 24 22 22 24 23 25 28
8 7 7 7 6 6 6 6 11 41 46 59 47 51 67 59 41 19 7 6 6 6 6 6 7 7 7 7 8 8 8 8 10 10 14 16 17 19 20 21 22 22 24 25 26 27 31
9 8 7 7 7 7 7 7 6 20 53 25 49 46 45 65 64 58 45 22 10 9 7 7 8 8 9 11 13 14 14 14 14 16 15 15 15 16 18 17 17 17 17 23 26 31 38
10 9 8 8 8 8 8 7 7 6 10 39 43 54 49 46 59 70 71 74 50 35 28 20 13 10 9 8 10 10 10 11 11 12 13 14 15 16 23 27 44 42 47 48 48 52 47
10 10 10 10 10 10 11 10 10 9 8 9 13 53 57 53 47 44 67 82 81 70 71 69 57 51 56 35 51 57 58 54 45 33 46 59 57 57 61 65 72 73 72 73 64 63 57
14 13 12 14 19 18 18 18 15 14 13 12 10 14 26 48 60 61 45 60 86 91 87 83 88 70 65 66 84 86 88 87 85 84 90 88 85 81 71 71 79 64 58 43 40 45 32
35 32 28 23 26 31 40 36 33 36 26 21 22 16 15 16 37 58 55 52 46 65 86 87 72 91 81 76 78 77 74 73 74 61 64 69 78 66 57 70 67 43 63 42 32 32 32

GFSGBSN_500_rhum_126.txt.gz
RH
16 24 48 57 21 43 99 53 39 58 53 89 95 82 94 94 98 100 100 97 55 44 40 76 98 91 80 47 69 38 15 11 17 49 47 46 41 34 26 24 25 32 33 31 28 30 29
15 32 39 45 13 16 62 42 40 45 51 66 80 72 85 84 93 90 97 87 50 41 47 99 61 97 59 40 51 62 21 12 10 16 20 34 42 43 40 39 36 29 28 29 30 28 24
16 32 33 47 19 18 35 28 28 45 61 52 57 79 56 55 96 70 85 86 47 34 100 100 99 86 85 45 32 60 37 17 11 9 15 9 26 27 31 33 32 27 26 25 26 22 19
14 29 32 42 35 21 19 23 34 61 43 40 49 52 42 51 62 87 97 74 64 49 100 100 100 98 72 44 34 46 64 23 16 10 8 6 6 7 10 17 17 16 17 19 16 14 13
10 22 29 32 42 33 37 32 30 38 25 30 37 42 37 56 79 95 93 94 61 42 100 100 99 76 65 37 30 40 72 45 21 16 12 10 8 7 7 8 9 9 10 10 11 9 7
8 17 31 31 30 38 38 56 73 95 50 23 22 36 47 76 75 75 100 86 63 98 96 100 73 46 52 40 24 37 72 68 34 21 16 13 12 11 10 10 9 8 8 8 8 7 7
7 10 28 33 29 49 54 53 66 90 98 80 55 28 29 70 75 100 98 86 80 96 100 100 92 79 48 30 26 34 63 76 60 38 25 21 19 17 16 15 13 12 10 10 11 8 7
8 8 16 26 30 30 56 71 73 71 99 93 66 56 78 86 88 100 100 99 100 100 100 95 82 74 48 33 30 42 60 70 66 56 48 38 30 24 20 18 16 16 15 14 11 8 8
11 8 8 16 22 28 31 60 68 64 80 99 100 98 94 85 87 98 72 62 97 100 87 68 77 52 39 32 34 42 57 68 65 56 49 41 36 31 28 26 23 21 18 13 11 9 8
39 10 8 8 13 18 27 27 55 67 72 81 100 100 100 100 71 86 71 83 96 88 61 65 62 50 39 31 27 32 43 50 51 48 45 40 34 35 34 32 30 27 23 18 13 11 12
74 27 9 8 7 8 22 31 29 45 76 81 78 76 100 99 53 58 82 55 41 48 56 52 60 47 41 36 33 30 29 32 39 36 30 28 28 22 25 26 25 22 20 19 18 18 22
76 70 20 9 8 8 8 13 35 35 36 45 70 75 62 60 51 40 46 43 53 47 37 44 54 44 36 30 26 26 26 24 25 22 17 18 15 18 19 21 23 23 23 23 23 23 23
50 75 67 19 10 8 8 8 9 16 28 39 40 53 68 62 58 43 39 45 54 61 54 75 69 62 46 32 21 17 15 13 14 12 9 11 16 17 18 21 20 19 20 22 20 18 14
19 52 73 68 20 11 9 9 8 8 10 13 19 36 39 49 50 57 63 65 75 84 73 73 58 56 55 50 45 32 23 19 15 15 15 14 17 17 20 17 17 22 22 17 11 7 6
7 18 67 72 68 39 12 10 9 9 8 9 10 12 15 20 23 36 44 50 46 47 63 67 61 57 53 65 59 42 35 29 23 21 22 17 16 21 19 21 19 16 11 6 5 5 5
6 7 18 69 71 72 47 11 13 10 10 9 9 10 10 10 13 16 19 24 25 35 41 43 42 44 44 40 38 36 39 40 39 37 33 30 27 20 17 14 12 5 5 6 6 8 11
5 6 8 24 65 81 76 55 12 13 12 12 11 11 10 10 11 10 11 12 13 20 23 24 24 24 29 29 27 30 25 21 21 21 20 18 17 15 12 6 5 7 9 12 14 14 13
5 5 6 8 24 66 83 78 67 24 10 14 14 13 13 14 12 11 11 9 8 10 10 10 13 14 14 17 21 21 21 17 13 9 7 7 6 6 6 8 12 14 14 10 8 8 8
4 5 5 6 8 17 59 65 79 70 50 11 12 14 16 14 16 17 16 16 15 12 9 9 9 9 10 9 9 8 8 7 8 8 10 10 11 12 14 13 10 8 7 8 8 8 9
4 5 5 5 6 8 14 37 57 76 62 59 16 8 12 15 16 17 16 17 18 17 16 15 16 15 15 15 16 16 16 15 15 14 13 12 10 9 8 8 9 9 9 10 12 11 12
4 4 4 5 5 6 6 12 28 54 69 57 64 35 7 8 12 14 15 17 17 15 15 14 13 12 11 11 11 11 11 11 12 11 11 11 11 13 14 12 12 12 14 16 18 19 20
5 5 5 5 5 5 6 6 11 28 56 57 54 63 57 13 6 7 9 10 10 12 12 12 13 12 10 10 10 10 10 11 12 13 13 15 15 17 18 19 21 21 21 22 25 25 24
6 6 7 7 6 6 6 6 7 11 33 52 46 50 63 67 35 11 7 6 6 7 8 8 8 8 8 8 8 9 9 9 10 12 13 16 18 20 20 21 22 22 22 24 26 26 30
7 7 7 8 7 7 7 7 7 8 11 31 29 46 48 51 68 62 32 9 8 7 6 6 6 7 7 8 8 8 8 8 9 10 12 14 16 17 18 19 20 19 18 20 19 24 29
9 9 9 8 8 8 8 8 9 8 8 10 16 28 49 51 47 64 68 62 49 20 12 9 8 8 8 9 10 12 13 13 13 13 15 15 15 15 15 16 16 16 16 21 27 37 46
9 9 9 9 8 8 9 11 13 12 11 10 10 11 17 46 54 51 48 64 74 77 53 40 28 18 13 11 10 9 10 11 10 11 11 12 13 17 21 27 29 43 54 62 73 69 64
12 13 12 12 12 12 13 18 21 23 22 19 16 12 12 13 28 48 58 53 47 64 82 69 71 71 61 49 50 42 35 57 63 60 63 57 51 59 65 66 75 80 77 76 61 53 49
18 15 17 19 22 24 28 33 33 37 42 37 32 29 22 19 17 19 28 59 67 59 52 69 85 86 78 81 68 62 59 87 85 86 84 85 76 73 69 81 84 80 78 75 62 62 53
32 41 32 29 42 42 50 56 58 64 57 58 50 47 47 42 36 31 24 26 45 74 58 54 50 56 65 65 58 85 92 86 92 88 76 69 68 62 61 60 56 46 51 54 48 46 48

GFSGBSN_500_rhum_129.txt.gz
RH
17 22 34 35 44 21 19 28 33 44 52 44 52 54 66 95 87 90 100 100 81 52 46 81 86 86 67 52 66 32 16 47 55 49 19 11 12 11 10 9 8 8 8 9 9 8 8
17 17 31 40 49 58 29 42 58 64 66 44 35 49 47 80 79 98 99 100 80 72 38 77 100 89 78 44 67 44 16 23 58 55 47 24 12 10 10 10 10 9 9 8 10 17 25
22 20 22 38 50 73 80 40 36 62 62 53 34 35 63 78 95 100 100 97 87 55 28 100 100 96 87 50 60 60 20 15 40 55 50 46 34 22 13 11 10 9 12 23 30 30 29
17 23 24 35 54 65 96 93 32 39 50 43 45 59 76 74 90 100 100 86 58 39 49 94 100 100 80 52 64 69 27 14 18 40 50 62 50 43 36 31 32 32 34 36 30 28 28
10 18 21 30 47 61 90 98 53 24 29 44 70 43 68 88 100 100 80 66 39 80 100 81 93 82 65 47 74 71 41 15 12 17 44 62 60 37 38 38 38 37 35 27 22 19 17
8 9 14 26 40 70 74 100 80 37 20 25 34 46 76 84 90 89 82 55 48 100 100 100 84 73 60 47 48 72 58 22 12 11 9 20 37 39 42 24 19 18 15 12 10 9 9
8 8 8 14 30 44 72 82 100 88 51 35 92 69 58 69 76 83 86 57 95 100 100 99 100 81 51 49 38 65 65 43 16 13 10 8 7 6 6 7 8 9 8 9 9 9 9
10 8 8 8 16 31 54 70 96 94 97 86 92 97 84 100 100 82 59 68 93 99 85 98 98 64 39 39 36 54 66 57 28 16 14 11 10 9 9 9 10 10 12 12 12 14 16
14 10 9 9 9 17 34 48 82 100 96 98 99 98 99 91 75 72 76 95 98 91 44 57 52 64 43 28 37 51 69 65 48 25 18 16 14 13 13 14 15 15 15 16 18 19 19
73 11 10 9 9 10 15 35 42 85 75 77 48 48 70 70 66 74 75 94 99 93 88 93 82 59 41 33 34 48 68 68 64 49 35 25 23 23 23 22 21 22 23 26 26 25 25
80 71 12 10 9 9 11 11 34 46 58 37 62 59 60 64 89 75 46 47 70 84 88 88 74 49 43 43 36 50 69 71 65 56 50 41 38 36 33 34 34 32 29 26 23 20 12
70 79 73 12 11 10 9 10 11 23 37 46 47 46 55 64 51 44 66 51 59 66 60 65 57 43 36 38 39 51 65 63 64 61 58 46 43 39 34 32 25 18 14 10 10 11 8
15 73 79 75 12 11 10 10 10 10 15 26 41 53 55 61 64 58 50 32 41 51 35 43 49 37 34 31 29 31 41 43 40 40 39 34 26 24 18 14 12 8 7 8 6 9 11
8 26 70 90 81 14 12 11 11 10 11 11 12 20 34 44 61 67 77 48 33 37 39 34 30 22 24 21 22 19 19 20 22 20 18 15 15 10 10 8 7 8 9 11 9 7 5
6 8 30 75 82 82 25 12 12 12 12 11 11 10 13 22 30 47 50 68 48 40 38 39 29 20 16 16 16 13 11 10 10 8 8 7 6 8 7 7 8 12 13 11 5 5 5
5 6 8 22 64 72 77 56 12 13 13 13 13 11 10 10 15 23 39 39 41 45 45 40 35 32 30 26 20 15 11 10 9 8 7 11 9 8 8 8 12 12 8 5 6 9 11
5 5 6 8 16 48 68 74 68 20 14 14 14 14 13 11 9 12 18 21 29 33 36 39 36 35 36 36 30 27 24 21 17 14 14 12 12 14 13 16 10 6 6 10 12 10 7
4 5 5 6 8 11 32 66 70 67 26 12 15 14 16 16 14 11 9 10 12 19 21 22 24 26 26 29 30 26 24 24 23 23 22 20 19 16 13 8 5 10 13 9 8 8 8
4 5 5 5 5 6 10 22 66 62 64 52 10 14 16 15 16 16 16 15 12 10 9 8 10 12 17 19 19 19 18 15 13 11 8 8 8 6 7 8 12 11 7 8 9 10 10
5 4 4 5 6 6 6 8 18 62 58 59 65 25 9 15 16 15 14 13 14 15 15 16 15 13 11 9 8 8 8 8 9 10 11 11 12 13 12 9 7 8 10 13 16 18 18
5 5 4 5 5 6 6 6 8 22 41 53 56 65 53 8 9 13 14 14 14 12 11 10 11 12 12 12 12 13 13 12 12 11 9 8 8 8 10 10 10 12 14 16 18 22 22
5 5 5 6 6 6 7 7 7 7 28 31 46 55 59 70 26 7 7 10 11 12 10 10 11 10 9 10 10 11 11 12 12 12 12 12 14 15 16 17 20 20 21 22 23 24 26
7 7 6 6 7 7 6 7 8 7 8 18 23 44 51 51 67 64 31 8 6 7 7 8 8 8 8 8 8 8 9 10 10 12 13 14 16 18 17 19 21 21 22 22 22 23 24
8 8 8 8 8 8 8 7 8 9 8 8 12 22 36 52 55 62 70 61 33 17 12 8 7 7 7 8 8 8 9 8 9 9 10 11 14 16 16 17 18 18 19 20 19 19 22
9 9 9 9 9 8 8 8 8 10 13 12 11 10 14 26 48 54 54 59 70 71 69 40 24 16 10 8 8 9 11 13 14 14 14 14 15 16 15 14 15 15 16 17 20 27 39
12 11 10 10 10 10 10 10 11 13 17 21 21 18 14 13 15 28 47 59 53 52 64 80 66 56 42 36 27 21 14 12 12 12 12 12 13 15 16 16 22 49 65 71 74 82 85
16 14 13 13 12 12 13 15 17 22 28 32 33 39 34 26 21 18 18 28 45 59 58 53 71 82 79 76 76 78 64 64 55 53 74 76 75 79 83 82 82 80 78 78 78 81 86
39 27 17 17 20 18 19 20 23 28 39 46 52 59 56 51 41 38 31 25 26 29 48 64 64 54 57 76 88 88 84 82 82 79 80 93 95 92 80 72 72 69 58 55 54 66 65
80 54 31 36 26 26 34 44 38 56 57 58 67 68 67 61 58 55 54 50 39 39 27 28 49 64 60 58 56 53 57 61 61 80 95 92 94 93 80 69 63 62 56 50 47 50 55

GFSGBSN_500_rhum_132.txt.gz
RH
7 11 27 56 88 94 55 41 61 34 28 35 37 50 88 92 100 99 100 100 100 74 47 30 43 94 92 42 39 34 21 33 50 34 12 10 9 8 7 7 8 9 10 11 11 10 10
8 10 26 52 82 88 65 29 46 35 35 34 76 69 78 100 100 99 100 100 94 54 61 48 54 100 100 56 42 38 23 24 59 43 18 10 10 9 8 8 8 9 9 9 9 9 8
8 8 25 45 81 96 63 24 27 36 37 39 62 68 100 100 100 100 96 100 63 52 66 48 82 100 100 84 50 41 24 18 51 60 27 13 10 10 9 8 8 8 9 8 8 8 8
8 8 18 32 67 98 71 25 22 35 46 32 36 82 83 100 100 100 98 85 43 45 98 100 98 91 86 78 63 46 25 19 37 58 51 21 11 10 10 10 9 8 8 8 8 8 10
9 8 11 27 47 97 62 71 36 27 31 38 46 56 83 100 100 100 96 83 58 52 56 100 98 68 76 80 74 50 26 16 31 55 58 49 28 15 11 9 9 8 8 8 10 18 29
9 9 10 18 43 76 91 51 49 58 62 49 51 72 86 97 100 99 83 64 60 44 98 100 100 80 82 72 78 56 29 16 22 49 56 54 46 40 33 23 19 17 22 27 31 35 35
10 9 9 10 34 45 78 75 87 72 83 84 77 63 65 68 76 75 51 52 74 88 91 100 100 99 78 66 75 62 33 15 16 37 53 54 50 51 42 34 30 32 33 35 36 26 15
14 10 10 9 11 38 37 44 67 98 100 99 99 72 40 43 50 46 59 91 97 86 93 95 97 100 89 72 61 64 38 17 12 20 45 52 62 58 49 45 42 37 37 28 17 12 11
79 11 11 10 9 13 38 43 36 61 75 85 74 62 48 35 42 72 96 100 100 92 74 96 90 100 67 75 78 68 48 22 12 11 21 36 38 40 36 34 22 13 10 10 10 11 12
92 64 11 11 10 10 15 40 47 47 57 64 58 55 46 64 73 86 73 76 98 100 98 82 85 94 62 61 70 74 62 35 18 11 10 10 10 7 7 7 8 8 9 10 13 16 19
83 92 49 12 12 11 10 12 28 49 56 52 53 53 65 86 67 70 77 60 61 79 69 88 81 53 52 54 50 68 69 56 32 20 14 12 12 11 10 11 12 14 16 20 22 25 27
22 84 90 37 12 12 12 11 11 16 35 51 65 63 55 57 68 67 64 82 76 61 52 65 65 52 48 52 49 60 72 61 48 36 26 21 18 18 18 20 24 27 30 30 23 10 6
9 22 76 88 44 12 13 12 12 10 14 31 42 58 62 66 53 57 58 52 48 44 44 45 44 41 37 40 46 66 76 66 55 52 47 40 35 36 36 37 36 34 23 11 6 6 6
6 9 17 73 82 64 14 13 13 13 11 11 19 36 52 55 52 32 34 43 41 35 31 26 25 26 28 30 36 44 61 62 58 58 54 56 45 45 40 34 20 11 6 6 6 6 5
6 6 8 13 65 77 68 15 14 14 15 12 10 17 31 36 43 31 25 23 23 24 27 22 23 25 22 26 27 32 44 51 54 50 46 39 35 19 14 9 7 7 7 8 8 5 4
5 6 6 8 10 56 70 67 13 14 14 15 14 10 14 24 36 35 32 27 21 23 19 20 19 16 17 18 16 17 18 18 19 14 13 10 9 6 6 5 6 6 8 7 5 6 10
10 6 6 6 7 10 54 64 68 21 14 14 14 14 14 9 16 23 33 28 30 28 25 23 18 16 12 10 10 9 9 8 8 7 7 6 7 9 7 6 6 7 7 5 8 10 7
17 8 6 6 6 7 10 44 62 66 47 12 14 14 14 15 13 9 13 16 14 15 22 26 30 28 27 21 18 15 16 14 11 10 10 9 9 9 9 8 8 8 5 9 9 8 7
13 10 6 6 6 6 7 9 28 58 64 67 11 14 14 13 14 15 15 10 9 11 15 17 18 20 24 25 23 21 19 18 16 16 15 15 14 13 12 11 8 6 10 7 8 9 10
6 7 5 5 6 6 6 7 7 25 47 61 70 37 10 13 14 13 11 12 14 15 13 10 9 11 14 15 15 15 14 12 12 11 9 8 7 7 6 6 8 9 6 8 10 12 15
6 6 6 5 5 6 7 7 7 7 21 32 58 63 66 16 9 12 13 11 10 10 10 11 12 14 14 13 12 11 11 10 11 12 12 12 12 12 10 8 8 8 10 13 15 17 21
8 7 6 6 6 6 7 7 8 8 8 14 24 45 59 71 64 17 7 11 12 11 10 10 9 10 10 10 10 10 10 10 10 9 8 8 9 9 12 11 12 14 16 19 22 23 23
8 8 8 7 7 7 7 7 8 8 9 8 9 19 32 57 58 67 62 19 8 7 8 9 9 8 9 9 9 10 11 12 12 14 14 15 16 17 17 18 19 20 20 21 20 21 21
9 8 8 9 8 8 8 8 8 8 10 12 12 10 13 19 37 57 60 64 69 52 37 17 11 8 7 7 8 8 8 9 9 10 11 11 12 13 13 15 16 16 17 17 17 17 17
10 10 10 10 10 9 9 9 9 9 10 13 19 20 19 15 14 18 38 58 56 59 68 74 66 32 17 11 9 8 9 11 12 14 14 13 13 14 15 15 15 15 15 16 18 31 44
13 14 13 13 12 12 11 11 10 12 13 16 23 31 33 35 31 21 17 15 39 57 53 50 50 74 68 49 44 35 28 21 17 15 15 14 13 16 18 20 28 43 59 76 86 87 90
21 29 22 18 17 17 17 15 14 14 16 21 26 34 42 45 51 50 44 33 21 18 28 50 62 60 60 72 74 78 82 81 74 65 63 61 58 60 76 82 82 83 80 76 74 73 72
40 43 50 38 36 19 23 23 24 21 19 22 28 43 50 50 54 56 53 54 53 44 34 28 26 36 57 65 59 56 68 82 86 85 83 81 82 86 86 87 89 83 78 74 67 60 56
74 60 66 75 73 67 35 39 34 43 32 29 44 52 69 68 67 68 66 59 56 54 56 47 42 37 24 23 33 55 59 58 60 59 60 58 60 62 69 76 74 71 62 59 59 63 66